696 spring courses

Oceanside: 1 Barnard Drive Oceanside, CA 92056 | San Elijo: 3333 Manchester Avenue Cardiff, CA 92007 | CLC: 1831 Mission Avenue Oceanside, CA 92058
#CourseUnitsDatesClass TimeClass DaysSeats AvailableCampus 
1793 ACCT 101 : PRACTICAL ACCOUNTING 401/21/2020 - 05/22/2020 6:30 PM - 8:20 PM M 24 Online Enroll Now
1796 ACCT 101 : PRACTICAL ACCOUNTING 402/03/2020 - 05/22/2020 1:00 AM - 1:00 AM ONL 7 Online Enroll Now
3566 ACCT 101 : PRACTICAL ACCOUNTING 402/18/2020 - 05/18/2020 1:00 AM - 1:00 AM ONL 40 Online Enroll Now
3539 ACCT 104 : PAYROLL ACCOUNTING 302/18/2020 - 05/18/2020 1:00 AM - 1:00 AM ONL 27 Online Enroll Now
3567 ACCT 145 : INDIVIDUAL INCOME TAX 402/18/2020 - 05/18/2020 1:00 AM - 1:00 AM ONL 32 Online Enroll Now
1822 ACCT 148 : COMPUTER ACCOUNTING 302/18/2020 - 05/18/2020 1:00 AM - 1:00 AM ONL 15 Online Enroll Now
3540 ACCT 158 : BUSINESS MATH 302/18/2020 - 05/18/2020 1:00 AM - 1:00 AM ONL 33 Online Enroll Now
1805 ACCT 201 : FINANCIAL ACCOUNTING 401/21/2020 - 05/22/2020 9:00 AM - 10:50 AM MW 11 Oceanside Enroll Now
1807 ACCT 201 : FINANCIAL ACCOUNTING 401/21/2020 - 05/22/2020 1:30 PM - 3:20 PM MW 3 Oceanside Enroll Now
1812 ACCT 201 : FINANCIAL ACCOUNTING 402/18/2020 - 05/18/2020 1:00 AM - 1:00 AM ONL 5 Online Enroll Now
1814 ACCT 202 : MANAGERIAL ACCOUNTING 401/21/2020 - 05/22/2020 11:00 AM - 12:50 PM MW 20 Oceanside Enroll Now
1820 ACCT 202 : MANAGERIAL ACCOUNTING 402/18/2020 - 05/18/2020 1:00 AM - 1:00 AM ONL 24 Online Enroll Now
1099 ACE 149 : INTRO ACAD WRIT MULTILING BKG 402/03/2020 - 05/20/2020 1:30 PM - 3:50 PM M 24 Oceanside Enroll Now
1103 ACE 150 : INTRO COLL COMP MULTILING BKG 402/04/2020 - 05/21/2020 12:00 PM - 2:20 PM T 23 Oceanside Enroll Now
1105 ACE 150 : INTRO COLL COMP MULTILING BKG 402/03/2020 - 05/20/2020 6:00 PM - 9:05 PM M 23 Oceanside Enroll Now
1047 ADM 100 : INTRO TO ADMIN JUSTICE 302/03/2020 - 05/20/2020 8:45 AM - 10:20 AM MW 25 San Elijo Enroll Now
1048 ADM 100 : INTRO TO ADMIN JUSTICE 302/07/2020 - 05/22/2020 8:30 AM - 12:20 PM F 19 Oceanside Enroll Now
3568 ADM 200 : CRIMINAL LAW 301/27/2020 - 05/18/2020 6:00 PM - 9:10 PM M 26 Oceanside Enroll Now
1051 ADM 220 : CRIMINAL EVIDENCE 301/21/2020 - 05/22/2020 6:00 PM - 8:50 PM W 2 Oceanside Enroll Now
1052 ADM 240 : WRITTEN/ORAL COMM - ADM 301/21/2020 - 05/22/2020 9:00 AM - 10:15 AM MW 15 Oceanside Enroll Now
1053 ADM 250 : POLICE FIELD OPERATIONS 301/21/2020 - 05/22/2020 12:00 PM - 1:15 PM MW 25 Oceanside Enroll Now
1059 ANTH 101 : BIOLOGICAL ANTHRO 301/21/2020 - 05/22/2020 4:30 PM - 5:45 PM MW 17 Oceanside Enroll Now
1060 ANTH 101 : BIOLOGICAL ANTHRO 301/21/2020 - 05/22/2020 6:00 PM - 8:50 PM W 3 Oceanside Enroll Now
1076 ANTH 102 : CULTURAL ANTHROPOLOGY 301/21/2020 - 05/22/2020 10:30 AM - 11:45 AM MW 18 San Elijo Enroll Now
1081 ANTH 107 : GENDER, SEX, AND SEXUALITY 301/21/2020 - 05/22/2020 9:00 AM - 10:15 AM MW 29 San Elijo Enroll Now
2636 ART 100 : DRAWING AND COMPOSITION 301/21/2020 - 05/22/2020 2:00 PM - 2:45 PM MW 5 Oceanside Enroll Now
2640 ART 100 : DRAWING AND COMPOSITION 301/21/2020 - 05/22/2020 6:30 PM - 7:15 PM MW 12 Oceanside Enroll Now
2644 ART 100 : DRAWING AND COMPOSITION 301/21/2020 - 05/22/2020 10:00 AM - 10:45 AM MW 6 San Elijo Enroll Now
2646 ART 100 : DRAWING AND COMPOSITION 302/04/2020 - 05/21/2020 1:00 PM - 2:00 PM TTH 11 San Elijo Enroll Now
2648 ART 101 : DESIGN AND COLOR 301/21/2020 - 05/22/2020 2:00 PM - 2:45 PM MW 12 Oceanside Enroll Now
2650 ART 101 : DESIGN AND COLOR 301/21/2020 - 05/22/2020 8:00 AM - 8:45 AM MW 9 Oceanside Enroll Now
2699 ART 101 : DESIGN AND COLOR 301/21/2020 - 05/22/2020 1:00 PM - 1:45 PM MW 5 San Elijo Enroll Now
2658 ART 103 : 3D DESIGN 302/04/2020 - 05/19/2020 9:00 AM - 10:00 AM TTH 11 San Elijo Enroll Now
2663 ART 157 : ART ORIENTATION 302/18/2020 - 05/18/2020 1:00 AM - 1:00 AM ONL 20 Online Enroll Now
2770 ART 157 : ART ORIENTATION 303/23/2020 - 05/18/2020 1:00 AM - 1:00 AM ONL 1 Online Enroll Now
2816 ART 157 : ART ORIENTATION 302/03/2020 - 05/20/2020 6:00 PM - 7:35 PM MW 28 Oceanside Enroll Now
3611 ART 157 : ART ORIENTATION 303/23/2020 - 05/18/2020 1:00 AM - 1:00 AM ONL 35 Online Enroll Now
2738 ART 201 : OBJECTS/IDEAS CONTEMP ART 302/04/2020 - 05/19/2020 10:30 AM - 11:30 AM TTH 21 Oceanside Enroll Now
2720 ART 202 : PAINTING: ACRYLIC 302/03/2020 - 05/20/2020 2:00 PM - 3:00 PM MW 14 San Elijo Enroll Now
2722 ART 203 : LIFE DRAWING I 302/03/2020 - 05/20/2020 6:00 PM - 7:00 PM MW 12 San Elijo Enroll Now
2752 ART 204 : PAINTING I: OILS 301/21/2020 - 05/22/2020 11:00 AM - 11:45 AM MW 8 Oceanside Enroll Now
2668 ART 205 : WATERCOLOR 301/24/2020 - 05/22/2020 9:00 AM - 10:40 AM F 21 Oceanside Enroll Now
2814 ART 205 : WATERCOLOR 302/07/2020 - 05/22/2020 9:00 AM - 10:45 AM F 13 San Elijo Enroll Now
2774 ART 206 : MIXED MEDIA FIGURE STUDIES I 302/04/2020 - 05/19/2020 11:00 AM - 12:00 PM TTH 21 Oceanside Enroll Now
2674 ART 207 : BEG PHOTOGRAPHY 301/21/2020 - 05/22/2020 3:00 PM - 3:45 PM MW 3 Oceanside Enroll Now
2732 ART 210 : PRINTMAKING I 302/04/2020 - 05/19/2020 2:00 PM - 3:00 PM TTH 17 Oceanside Enroll Now
2785 ART 211 : MIXED MEDIA FIGURE STUDIES II 302/04/2020 - 05/19/2020 11:00 AM - 12:00 PM TTH 28 Oceanside Enroll Now
2724 ART 212 : PAINTING II: ACRYLICS 302/03/2020 - 05/20/2020 2:00 PM - 3:00 PM MW 15 San Elijo Enroll Now
2726 ART 213 : LIFE DRAWING II 302/03/2020 - 05/20/2020 6:00 PM - 7:00 PM MW 19 San Elijo Enroll Now
2779 ART 214 : PAINTING II: OILS 302/03/2020 - 05/20/2020 3:00 PM - 4:00 PM MW 20 Oceanside Enroll Now
2704 ART 215 : PAINTING II: WATERCOLOR 301/24/2020 - 05/22/2020 9:00 AM - 10:40 AM F 26 Oceanside Enroll Now
2812 ART 215 : PAINTING II: WATERCOLOR 302/07/2020 - 05/22/2020 9:00 AM - 10:45 AM F 16 San Elijo Enroll Now
2734 ART 218 : PRINTMAKING II 302/04/2020 - 05/19/2020 2:00 PM - 3:00 PM TTH 24 Oceanside Enroll Now
2744 ART 221 : PRINTMAKING III 302/04/2020 - 05/19/2020 2:00 PM - 3:00 PM TTH 29 Oceanside Enroll Now
2777 ART 222 : PRINTMAKING IV 302/04/2020 - 05/19/2020 2:00 PM - 3:00 PM TTH 30 Oceanside Enroll Now
2718 ART 223 : WOODWORKING & FURN DESIGN I 302/03/2020 - 05/20/2020 6:00 PM - 7:00 PM MW 6 Oceanside Enroll Now
2728 ART 224 : WOODWORKING & FURN DESIGN II 302/03/2020 - 05/20/2020 6:00 PM - 7:00 PM MW 28 Oceanside Enroll Now
2706 ART 226 : CERAMICS II 301/21/2020 - 05/22/2020 1:30 PM - 2:15 PM MW 15 Oceanside Enroll Now
2756 ART 227 : CERAMICS III 301/21/2020 - 05/22/2020 1:30 PM - 2:15 PM MW 24 Oceanside Enroll Now
2750 ART 228 : CERAMICS IV 301/21/2020 - 05/22/2020 1:30 PM - 2:15 PM MW 29 Oceanside Enroll Now
2746 ART 229 : WOODWORKING & FURN DESIGN III 302/03/2020 - 05/20/2020 6:00 PM - 7:00 PM MW 29 Oceanside Enroll Now
2810 ART 234 : KINETIC ART 302/03/2020 - 05/20/2020 12:30 PM - 1:30 PM MW 18 Oceanside Enroll Now
2748 ART 239 : WOODWORKING & FURN DESIGN IV 302/03/2020 - 05/20/2020 6:00 PM - 7:00 PM MW 27 Oceanside Enroll Now
2730 ART 241 : PAINTING: ACRYLIC III 302/03/2020 - 05/20/2020 2:00 PM - 3:00 PM MW 20 San Elijo Enroll Now
2714 ART 242 : PAINTING: WATERCOLOR III 301/24/2020 - 05/22/2020 9:00 AM - 10:40 AM F 29 Oceanside Enroll Now
3451 ART 242 : PAINTING: WATERCOLOR III 302/07/2020 - 05/22/2020 9:00 AM - 10:45 AM F 18 San Elijo Enroll Now
2712 ART 245 : DIGITAL ART AND MEDIA 301/21/2020 - 05/22/2020 9:00 AM - 9:45 AM MW 10 Oceanside Enroll Now
2682 ART 251 : DIGITAL PHOTOGRAPHY 302/07/2020 - 05/22/2020 9:00 AM - 10:45 AM F 17 Oceanside Enroll Now
2767 ART 254 : THE PHOTOGRAPHIC IMAGE 302/18/2020 - 05/18/2020 1:00 AM - 1:00 AM ONL 21 Online Enroll Now
2809 ART 254 : THE PHOTOGRAPHIC IMAGE 301/21/2020 - 05/22/2020 12:00 PM - 1:15 PM MW 24 Oceanside Enroll Now
2742 ART 258 : ANCIENT/GOTHIC ART 302/03/2020 - 05/22/2020 1:00 AM - 1:00 AM ONL 21 Online Enroll Now
2692 ART 259 : RENAISSANCE/MODERN ART 301/21/2020 - 05/22/2020 1:30 PM - 2:45 PM MW 19 Oceanside Enroll Now
2711 ART 259 : RENAISSANCE/MODERN ART 302/03/2020 - 05/22/2020 1:00 AM - 1:00 AM ONL 25 Online Enroll Now
2776 ART 260 : HISTORY OF MODERN ART 301/21/2020 - 05/22/2020 9:00 AM - 10:15 AM MW 18 Oceanside Enroll Now
2787 ART 261 : MIXED MEDIA FIGURE STUDIES III 302/04/2020 - 05/19/2020 11:00 AM - 12:00 PM TTH 30 Oceanside Enroll Now
2763 ART 263 : LIFE DRAWING III 302/03/2020 - 05/20/2020 6:00 PM - 7:00 PM MW 19 San Elijo Enroll Now
2740 ART 264 : PAINTING III: OILS 302/03/2020 - 05/20/2020 3:00 PM - 4:00 PM MW 30 Oceanside Enroll Now
2716 ART 295 : VISUAL ART/PROF PRACTICE 302/04/2020 - 05/19/2020 2:45 PM - 3:45 PM TTH 20 Oceanside Enroll Now
1837 ASTR 101L : DESCRIPTIVE ASTRONOMY LAB 101/21/2020 - 05/22/2020 7:00 PM - 9:50 PM W 20 Oceanside Enroll Now
1838 ASTR 201 : INTRODUCTORY ASTRONOMY 301/21/2020 - 05/22/2020 1:30 PM - 2:45 PM MW 19 Oceanside Enroll Now
3064 ATHL 118 : BASKETBALL TECHNIQUES 103/27/2020 - 05/22/2020 1:00 AM - 1:00 AM F 33 Oceanside Enroll Now
3065 ATHL 118 : BASKETBALL TECHNIQUES 104/06/2020 - 05/20/2020 1:00 AM - 1:00 AM MW 34 Oceanside Enroll Now
1636 AUTO 102 : PREVENTIVE MAINT/ENGINE PERF 402/04/2020 - 05/19/2020 2:00 PM - 5:25 PM T 19 Oceanside Enroll Now
1614 AUTO 130 : BASIC ENGINE PERFORMANCE 201/27/2020 - 05/18/2020 2:30 PM - 4:00 PM M 10 Oceanside Enroll Now
1616 AUTO 130 : BASIC ENGINE PERFORMANCE 201/21/2020 - 05/22/2020 6:00 PM - 7:30 PM W 1 Oceanside Enroll Now
1618 AUTO 135 : AUTO ELECTRONIC FUNDAMENTALS 401/21/2020 - 05/22/2020 11:10 AM - 12:40 PM MW 4 Oceanside Enroll Now
1622 AUTO 141 : AUTO ENGINE PERFORMANCE 401/21/2020 - 05/22/2020 8:00 AM - 9:30 AM MW 5 Oceanside Enroll Now
1626 AUTO 156 : AUTO TRANSMISSIONS/TRANSAXLES 401/21/2020 - 05/22/2020 6:00 PM - 7:30 PM MW 2 Oceanside Enroll Now
1630 AUTO 200 : HYBRID & ALTERNATIVE FUEL 401/21/2020 - 05/22/2020 6:00 PM - 7:45 PM MW 5 Oceanside Enroll Now
1609 BIO 104 : INTRO BIO: BOTANY (PLANT LIFE) 401/27/2020 - 05/18/2020 9:00 AM - 12:10 PM M 7 Oceanside Enroll Now
1600 BIO 105 : INTRO BIO: BIOTECH IN SOCIETY 302/03/2020 - 05/20/2020 8:30 AM - 10:05 AM MW 17 Oceanside Enroll Now
3586 BIO 105 : INTRO BIO: BIOTECH IN SOCIETY 303/23/2020 - 05/18/2020 1:00 AM - 1:00 AM ONL 24 Online Enroll Now
1571 BIO 111L : INTR BIO: PREHLTH PROF (LAB) 101/21/2020 - 05/22/2020 9:00 AM - 11:50 AM TH 4 Oceanside Enroll Now
1516 BIO 202 : EVOLTN, BIODIVRSTY, ORGANISMAL 401/21/2020 - 05/22/2020 9:00 AM - 10:20 AM MW 4 San Elijo Enroll Now
1596 BIO 202 : EVOLTN, BIODIVRSTY, ORGANISMAL 401/21/2020 - 05/22/2020 1:15 PM - 2:30 PM MW 4 Oceanside Enroll Now
1604 BIO 204 : BIOCHEM, CELL, GENE, MOLECULAR 401/21/2020 - 05/22/2020 12:00 PM - 1:15 PM MW 8 Oceanside Enroll Now
1528 BIO 220 : HUMAN PHYSIOLOGY 401/21/2020 - 05/22/2020 7:30 AM - 8:50 AM WF 9 Oceanside Enroll Now
1545 BIO 220 : HUMAN PHYSIOLOGY 401/21/2020 - 05/22/2020 1:30 PM - 2:45 PM MW 1 San Elijo Enroll Now
1586 BIO 220 : HUMAN PHYSIOLOGY 401/21/2020 - 05/22/2020 9:00 AM - 10:15 AM MW 2 Oceanside Enroll Now
1592 BIO 220 : HUMAN PHYSIOLOGY 401/21/2020 - 05/22/2020 5:30 PM - 6:45 PM MW 11 San Elijo Enroll Now
1547 BIO 230 : INTRO TO MICROBIOLOGY 501/21/2020 - 05/22/2020 10:30 AM - 11:50 AM MW 16 Oceanside Enroll Now
1396 BOT 100 : BEGINNING KEYBOARDING 103/23/2020 - 05/18/2020 1:00 AM - 1:00 AM ONL 32 Online Enroll Now
1397 BOT 101 : ADVANCED KEYBOARDING 103/23/2020 - 05/18/2020 1:00 AM - 1:00 AM ONL 26 Online Enroll Now
1769 BTEC 120 : BUS/REGUL PRACT IN BTEC 302/03/2020 - 05/22/2020 1:00 AM - 1:00 AM ONL 19 Online Enroll Now
3551 BTEC 180 : BIOSTATISTICS 402/04/2020 - 05/21/2020 6:00 PM - 7:35 PM TTH 25 Oceanside Enroll Now
1778 BTEC 221 : BIOPROCESSING: CELL CULTURE 201/23/2020 - 03/12/2020 6:00 PM - 8:00 PM TH 3 Oceanside Enroll Now
1780 BTEC 222 : BIOPROCESSING: LG SCALE PURIFC 203/26/2020 - 05/14/2020 6:00 PM - 8:00 PM TH 3 Oceanside Enroll Now
1790 BTEC 460 : CAPSTONE IN BIOMAN TECH 301/27/2020 - 05/18/2020 8:00 AM - 11:10 AM M 9 Oceanside Enroll Now
1791 BTEC 470 : CAPSTONE SEM BIOMAN QUALITY 301/21/2020 - 05/22/2020 8:00 AM - 10:50 AM W 9 Oceanside Enroll Now
1453 BUS 120 : INTRO TO BUSINESS 301/22/2020 - 03/14/2020 10:30 AM - 11:45 AM MW 22 San Elijo Enroll Now
1493 BUS 120 : INTRO TO BUSINESS 303/23/2020 - 05/18/2020 12:30 PM - 1:45 PM MW 18 Online Enroll Now
1456 BUS 130 : ENTREP & SMALL BUSINESS MGMT 301/21/2020 - 05/22/2020 10:30 AM - 11:45 AM TH 8 Oceanside Enroll Now
1464 BUS 136 : HUMAN RELATIONS IN BUSINESS 301/21/2020 - 05/22/2020 4:30 PM - 5:45 PM MW 5 Oceanside Enroll Now
1467 BUS 140 : LEGAL ENVIRONMENT OF BUS 301/21/2020 - 05/22/2020 3:30 PM - 4:45 PM MW 11 Oceanside Enroll Now
1468 BUS 140 : LEGAL ENVIRONMENT OF BUS 301/22/2020 - 03/14/2020 9:00 AM - 10:15 AM MW 22 Online Enroll Now
1471 BUS 140 : LEGAL ENVIRONMENT OF BUS 302/05/2020 - 05/20/2020 5:30 PM - 8:55 PM W 34 Oceanside Enroll Now
3426 BUS 140 : LEGAL ENVIRONMENT OF BUS 301/21/2020 - 05/22/2020 1:30 PM - 2:45 PM MW 7 San Elijo Enroll Now
3427 BUS 144 : BUDGETING BASICS 103/23/2020 - 04/18/2020 1:00 AM - 1:00 AM ONL 16 Online Enroll Now
3577 BUS 147 : PERSONAL FINANCE 302/18/2020 - 05/18/2020 1:00 AM - 1:00 AM ONL 19 Online Enroll Now
1506 BUS 152 : BUS IDEA GENERATION 202/03/2020 - 04/04/2020 1:00 AM - 1:00 AM ONL 30 Online Enroll Now
1507 BUS 153 : BUSINESS STARTUP FUNDAMENTALS 102/18/2020 - 03/14/2020 1:00 AM - 1:00 AM ONL 14 Online Enroll Now
1508 BUS 154 : FUNDING ENTREPRENEURIAL VENT 104/20/2020 - 05/18/2020 1:00 AM - 1:00 AM ONL 30 Online Enroll Now
1505 BUS 155 : BUSINESS PLAN DEVELOPMENT 203/23/2020 - 05/18/2020 1:00 AM - 1:00 AM ONL 24 Online Enroll Now
1504 BUS 289 : CAREER MENTORING 102/07/2020 - 05/22/2020 9:00 AM - 10:30 AM F 32 Online Enroll Now
1485 BUS 290 : BUSINESS COMMUNICATION 303/23/2020 - 05/18/2020 9:00 AM - 10:15 AM MW 1 San Elijo Enroll Now
2199 CHEM 115 : INTRO GEN CHEM: ALLD HLTH MJRS 401/21/2020 - 05/22/2020 5:30 PM - 6:50 PM MW 10 Oceanside Enroll Now
2201 CHEM 115 : INTRO GEN CHEM: ALLD HLTH MJRS 401/21/2020 - 05/22/2020 8:00 AM - 11:00 AM F 11 San Elijo Enroll Now
2213 CHEM 140 : PREP FOR GEN CHEM 401/21/2020 - 05/22/2020 8:00 AM - 11:00 AM F 14 San Elijo Enroll Now
2215 CHEM 140 : PREP FOR GEN CHEM 402/04/2020 - 05/21/2020 3:00 PM - 4:35 PM TTH 6 San Elijo Enroll Now
2217 CHEM 150 : GEN CHEM I: FOR SCI MAJORS 501/21/2020 - 05/22/2020 11:10 AM - 12:30 PM FS 5 Oceanside Enroll Now
2223 CHEM 150 : GEN CHEM I: FOR SCI MAJORS 501/21/2020 - 05/22/2020 1:30 PM - 2:50 PM MW 3 Oceanside Enroll Now
2229 CHEM 150 : GEN CHEM I: FOR SCI MAJORS 501/21/2020 - 05/22/2020 1:30 PM - 2:50 PM MW 17 San Elijo Enroll Now
2235 CHEM 151 : GEN CHEM II 501/21/2020 - 05/22/2020 7:40 AM - 9:00 AM FS 13 Oceanside Enroll Now
2237 CHEM 151 : GEN CHEM II 501/21/2020 - 05/22/2020 10:30 AM - 11:50 AM MW 2 Oceanside Enroll Now
2243 CHEM 151 : GEN CHEM II 501/21/2020 - 05/22/2020 5:30 PM - 6:50 PM MW 18 San Elijo Enroll Now
3506 CHEM 210 : ORGANIC CHEMISTRY I 501/21/2020 - 05/22/2020 7:30 AM - 8:50 AM MW 6 San Elijo Enroll Now
3554 CHLD 106 : INTRO TO CURRICULUM/EARLY CHLD 303/23/2020 - 05/18/2020 1:00 AM - 1:00 AM ONL 11 Online Enroll Now
3555 CHLD 112 : CHILD GROWTH & DEVELOPMENT 303/23/2020 - 05/18/2020 1:00 AM - 1:00 AM ONL 26 Online Enroll Now
1744 CHLD 113 : CHLD/ADOLESC GROWTH 301/21/2020 - 05/22/2020 12:00 PM - 1:15 PM MW 1 Oceanside Enroll Now
1763 CHLD 113 : CHLD/ADOLESC GROWTH 303/23/2020 - 05/18/2020 1:00 AM - 1:00 AM ONL 13 Online Enroll Now
1730 CHLD 150 : ART FOR YOUNG CHILDREN 303/28/2020 - 05/16/2020 8:30 AM - 2:40 PM S 18 Oceanside Enroll Now
1731 CHLD 160 : MUSIC & MOVEMENT FOR CHILDREN 302/07/2020 - 05/22/2020 9:00 AM - 12:50 PM F 22 Oceanside Enroll Now
1735 CHLD 210 : CHILD, FAMILY, & COMMUNITY 301/21/2020 - 05/22/2020 10:30 AM - 11:45 AM MW 3 Oceanside Enroll Now
1758 CHLD 210 : CHILD, FAMILY, & COMMUNITY 301/27/2020 - 05/18/2020 6:30 PM - 9:40 PM M 13 Oceanside Enroll Now
3558 CHLD 212 : ADV ISSUES INFANT-TODDLER CARE 302/08/2020 - 05/16/2020 9:00 AM - 12:50 PM S 35 Oceanside Enroll Now
1739 CHLD 240 : CHILDREN W/SPEC LEARNING NEED 302/03/2020 - 05/22/2020 1:00 AM - 1:00 AM ONL 5 Online Enroll Now
3493 CHLD 251 : ADMIN II: PERSONNEL & LEADER 302/03/2020 - 05/22/2020 1:00 AM - 1:00 AM ONL 9 Online Enroll Now
2148 COMM 101 : PUBLIC SPEAKING 301/27/2020 - 05/18/2020 6:00 PM - 9:10 PM M 11 San Elijo Enroll Now
2150 COMM 101 : PUBLIC SPEAKING 301/21/2020 - 05/22/2020 6:00 PM - 8:50 PM W 6 San Elijo Enroll Now
3589 COMM 101 : PUBLIC SPEAKING 302/04/2020 - 05/21/2020 1:30 PM - 3:05 PM TTH 17 Oceanside Enroll Now
2995 COUN 100 : COLLEGE AND CAREER SUCCESS 301/21/2020 - 05/22/2020 6:00 PM - 7:15 PM MW 8 Oceanside Enroll Now
2999 COUN 100 : COLLEGE AND CAREER SUCCESS 302/04/2020 - 05/19/2020 7:00 PM - 8:30 PM T 23 Oceanside Enroll Now
3000 COUN 100 : COLLEGE AND CAREER SUCCESS 303/26/2020 - 05/14/2020 9:00 AM - 11:50 AM TH 29 Online Enroll Now
3001 COUN 100 : COLLEGE AND CAREER SUCCESS 303/23/2020 - 05/18/2020 1:00 AM - 1:00 AM ONL 13 Online Enroll Now
3002 COUN 100 : COLLEGE AND CAREER SUCCESS 303/23/2020 - 05/18/2020 1:00 AM - 1:00 AM ONL 16 Online Enroll Now
2987 COUN 101 : ORIENTATION TO COLLEGE 103/25/2020 - 05/13/2020 12:30 PM - 2:35 PM W 21 CLC Enroll Now
2988 COUN 105 : TRANSFER SUCCESS 101/27/2020 - 05/18/2020 12:00 PM - 1:05 PM M 8 Oceanside Enroll Now
2989 COUN 105 : TRANSFER SUCCESS 101/21/2020 - 05/22/2020 12:00 PM - 12:50 PM W 12 Oceanside Enroll Now
2991 COUN 105 : TRANSFER SUCCESS 103/23/2020 - 05/18/2020 1:00 AM - 1:00 AM ONL 14 Online Enroll Now
1136 CRLP 101 : INTRO TO CAREER PLANNING 102/19/2020 - 03/11/2020 11:00 AM - 1:15 PM MW 17 Oceanside Enroll Now
1138 CRLP 101 : INTRO TO CAREER PLANNING 103/23/2020 - 05/01/2020 1:00 AM - 1:00 AM ONL 28 Online Enroll Now
1678 CS 113 : BASIC DATA STRUCTRS/ALGORITHMS 301/21/2020 - 05/22/2020 5:30 PM - 7:30 PM M 1 Oceanside Enroll Now
1684 CS 150 : C++ PROGRAMMING 301/21/2020 - 05/22/2020 7:00 AM - 8:00 AM MW 7 Oceanside Enroll Now
1404 CSIT 110 : COMPUTER APPLICATIONS 301/21/2020 - 05/22/2020 12:00 PM - 1:15 PM MW 3 Oceanside Enroll Now
1413 CSIT 125 : MICROSOFT WORD FOR BUSINESS 302/03/2020 - 05/22/2020 1:00 AM - 1:00 AM ONL 13 Online Enroll Now
1415 CSIT 128 : MICROSOFT EXCEL FOR BUSINESS 302/03/2020 - 05/22/2020 1:00 AM - 1:00 AM ONL 5 Online Enroll Now
1416 CSIT 131 : MICROSOFT ACCESS FOR BUSINESS 302/03/2020 - 05/22/2020 1:00 AM - 1:00 AM ONL 19 Online Enroll Now
1417 CSIT 134 : MICROSOFT POWERPOINT FOR BUS 302/03/2020 - 05/22/2020 1:00 AM - 1:00 AM ONL 18 Online Enroll Now
1423 CSIT 149 : MICROSOFT WINDOWS 302/03/2020 - 05/22/2020 1:00 AM - 1:00 AM ONL 25 Online Enroll Now
3587 CSIT 155 : SOCIAL MEDIA FOR BUSINESS 302/03/2020 - 05/22/2020 1:00 AM - 1:00 AM ONL 8 Online Enroll Now
1426 CSIT 160 : TECHNOL, INDIVIDUAL, & SOCIETY 302/03/2020 - 05/22/2020 1:00 AM - 1:00 AM ONL 19 Online Enroll Now
1428 CSIT 165 : LIVING IN AN ONLINE WORLD 302/03/2020 - 05/22/2020 1:00 AM - 1:00 AM ONL 17 Online Enroll Now
1429 CSIT 195 : IT CAREER EXPLORATION PORT DEV 103/23/2020 - 05/18/2020 1:00 AM - 1:00 AM ONL 18 Online Enroll Now
1116 DESN 108 : WORLD ARCHITECTURE 303/23/2020 - 05/18/2020 1:00 AM - 1:00 AM ONL 21 Online Enroll Now
1119 DESN 200 : ARCHITECTURAL DESIGN I 301/21/2020 - 05/22/2020 2:00 PM - 3:00 PM MW 4 Oceanside Enroll Now
1121 DESN 201 : ADVANCED AUTOCAD 301/21/2020 - 05/22/2020 9:00 AM - 10:00 AM MW 2 Oceanside Enroll Now
1129 DESN 290 : PORTFOLIO AND PRESENTATION 102/07/2020 - 05/22/2020 10:00 AM - 10:30 AM F 6 Online Enroll Now
2406 DNCE 100 : DANCE APPRECIATION 302/03/2020 - 05/22/2020 1:00 AM - 1:00 AM ONL 23 Online Enroll Now
2408 DNCE 101 : DANCE HISTORY 302/18/2020 - 05/18/2020 1:00 AM - 1:00 AM ONL 27 Online Enroll Now
2409 DNCE 104 : DANCE ON FILM 302/18/2020 - 05/18/2020 1:00 AM - 1:00 AM ONL 7 Online Enroll Now
2410 DNCE 105 : DANCE CULTURES OF THE WORLD 302/03/2020 - 05/22/2020 1:00 AM - 1:00 AM ONL 18 Online Enroll Now
3592 DNCE 105 : DANCE CULTURES OF THE WORLD 303/23/2020 - 05/18/2020 1:00 AM - 1:00 AM ONL 33 Online Enroll Now
2412 DNCE 121 : HIP HOP I 101/21/2020 - 05/22/2020 10:00 AM - 10:30 AM F 6 Oceanside Enroll Now
2414 DNCE 121 : HIP HOP I 101/21/2020 - 05/22/2020 6:00 PM - 6:30 PM TH 20 Oceanside Enroll Now
3433 DNCE 122 : HIP HOP II 101/21/2020 - 05/22/2020 10:00 AM - 10:30 AM F 25 Oceanside Enroll Now
3435 DNCE 122 : HIP HOP II 101/21/2020 - 05/22/2020 6:00 PM - 6:30 PM TH 26 Oceanside Enroll Now
2416 DNCE 146 : LATIN DANCE TECHNIQUE I 102/05/2020 - 05/20/2020 6:00 PM - 6:30 PM W 12 Oceanside Enroll Now
2418 DNCE 147 : LATIN DANCE TECHNIQUE II 102/05/2020 - 05/20/2020 6:00 PM - 6:30 PM W 24 Oceanside Enroll Now
2424 DNCE 169 : INTRO TO WORLD DANCE FORMS 102/03/2020 - 05/18/2020 6:00 PM - 6:35 PM M 17 Oceanside Enroll Now
2426 DNCE 176 : MODERN DANCE I 201/21/2020 - 05/22/2020 9:00 AM - 9:15 AM MW 8 Oceanside Enroll Now
2433 DNCE 191 : TAP DANCE I 201/21/2020 - 05/22/2020 3:45 PM - 4:00 PM MW 14 Oceanside Enroll Now
3602 DNCE 221 : HIP HOP III 202/03/2020 - 05/20/2020 1:30 PM - 2:00 PM MW 30 Oceanside Enroll Now
3604 DNCE 222 : HIP HOP IV 202/03/2020 - 05/20/2020 1:30 PM - 2:00 PM MW 30 Oceanside Enroll Now
3437 DNCE 246 : LATIN DANCE TECHNIQUE III 102/05/2020 - 05/20/2020 6:00 PM - 6:30 PM W 26 Oceanside Enroll Now
3439 DNCE 247 : LATIN DANCE TECHNIQUE IV 102/05/2020 - 05/20/2020 6:00 PM - 6:30 PM W 28 Oceanside Enroll Now
2445 DNCE 268 : JAZZ DANCE IV 201/21/2020 - 05/22/2020 10:45 AM - 11:00 AM MW 19 Oceanside Enroll Now
2606 DRAM 105 : INTRO TO THEATRE 302/03/2020 - 05/22/2020 1:00 AM - 1:00 AM ONL 33 Online Enroll Now
2610 DRAM 130 : ACTING I 301/21/2020 - 05/22/2020 11:30 AM - 12:30 PM MW 14 Oceanside Enroll Now
2612 DRAM 131 : AUDITION PREP FOR STAGE 201/21/2020 - 05/22/2020 2:00 PM - 2:30 PM MW 18 Oceanside Enroll Now
3576 DRAM 210 : REHEARSAL & PERFORM: TECH THTR 202/03/2020 - 05/22/2020 1:00 AM - 1:00 AM ARR 21 Oceanside Enroll Now
1885 EART 106 : EARTH & SPACE SCIENCE 302/03/2020 - 05/22/2020 1:00 AM - 1:00 AM ONL 17 Online Enroll Now
1887 EART 106 : EARTH & SPACE SCIENCE 302/03/2020 - 05/22/2020 1:00 AM - 1:00 AM ONL 5 Online Enroll Now
3612 EART 106 : EARTH & SPACE SCIENCE 303/23/2020 - 05/18/2020 1:00 AM - 1:00 AM ONL 28 Online Enroll Now
1325 ECON 100 : SURVEY OF ECONOMICS 301/21/2020 - 05/22/2020 9:00 AM - 10:15 AM MW 5 Oceanside Enroll Now
1327 ECON 100 : SURVEY OF ECONOMICS 303/23/2020 - 05/18/2020 12:00 PM - 2:50 PM MW 35 San Elijo Enroll Now
3571 ECON 100 : SURVEY OF ECONOMICS 302/03/2020 - 05/22/2020 1:00 AM - 1:00 AM ONL 17 Online Enroll Now
1328 ECON 101 : PRINCIPLES OF ECON: MACRO 301/21/2020 - 05/22/2020 7:30 AM - 8:45 AM MW 11 Oceanside Enroll Now
1334 ECON 101 : PRINCIPLES OF ECON: MACRO 302/05/2020 - 05/20/2020 6:00 PM - 7:50 PM W 23 San Elijo Enroll Now
1340 ECON 102 : PRINCIPLES OF ECON: MICRO 302/03/2020 - 05/18/2020 6:00 PM - 7:50 PM M 18 Oceanside Enroll Now
1342 ECON 102 : PRINCIPLES OF ECON: MICRO 302/07/2020 - 05/22/2020 12:00 PM - 2:05 PM F 17 Oceanside Enroll Now
2837 ENGL 40 : ENGL GRAMMAR & USAGE 302/03/2020 - 05/22/2020 1:00 AM - 1:00 AM ONL 1 Online Enroll Now
2840 ENGL 50 : INTRO TO COLLEGE COMPOSITION 401/21/2020 - 05/22/2020 11:00 AM - 12:50 PM MW 9 Oceanside Enroll Now
2842 ENGL 50 : INTRO TO COLLEGE COMPOSITION 402/04/2020 - 05/19/2020 3:30 PM - 5:45 PM TTH 14 Oceanside Enroll Now
3212 ENGL 52 : COLLEGE COMP SKILLS & SUPPORT 201/21/2020 - 05/22/2020 9:00 AM - 9:50 AM MW 5 Oceanside Enroll Now
3213 ENGL 52 : COLLEGE COMP SKILLS & SUPPORT 201/21/2020 - 05/22/2020 10:00 AM - 10:50 AM MW 5 Oceanside Enroll Now
3215 ENGL 52 : COLLEGE COMP SKILLS & SUPPORT 201/21/2020 - 05/22/2020 12:00 PM - 12:50 PM MW 2 Oceanside Enroll Now
3216 ENGL 52 : COLLEGE COMP SKILLS & SUPPORT 201/21/2020 - 05/22/2020 1:00 PM - 1:50 PM MW 6 Oceanside Enroll Now
3223 ENGL 52 : COLLEGE COMP SKILLS & SUPPORT 201/21/2020 - 05/22/2020 4:00 PM - 4:50 PM MW 2 Oceanside Enroll Now
2891 ENGL 100 : COMPOSITION & READING 401/21/2020 - 05/22/2020 7:00 AM - 8:50 AM MW 1 San Elijo Enroll Now
2892 ENGL 100 : COMPOSITION & READING 401/21/2020 - 05/22/2020 7:00 AM - 8:50 AM MW 5 Oceanside Enroll Now
2895 ENGL 100 : COMPOSITION & READING 401/25/2020 - 05/16/2020 8:00 AM - 12:20 PM S 9 Oceanside Enroll Now
2902 ENGL 100 : COMPOSITION & READING 401/21/2020 - 05/22/2020 10:00 AM - 11:50 AM MW 2 Oceanside Enroll Now
2910 ENGL 100 : COMPOSITION & READING 401/21/2020 - 05/22/2020 2:00 PM - 3:50 PM MW 2 Oceanside Enroll Now
2913 ENGL 100 : COMPOSITION & READING 401/21/2020 - 05/22/2020 8:00 AM - 12:00 PM F 1 Oceanside Enroll Now
2922 ENGL 100 : COMPOSITION & READING 401/21/2020 - 05/22/2020 8:00 AM - 9:50 AM MW 5 Oceanside Enroll Now
2934 ENGL 100 : COMPOSITION & READING 401/21/2020 - 05/22/2020 11:00 AM - 12:50 PM MW 6 Oceanside Enroll Now
2948 ENGL 100 : COMPOSITION & READING 402/07/2020 - 05/22/2020 8:00 AM - 1:05 PM F 22 Oceanside Enroll Now
2955 ENGL 100 : COMPOSITION & READING 401/21/2020 - 05/22/2020 9:00 AM - 10:50 AM MW 5 Oceanside Enroll Now
2956 ENGL 100 : COMPOSITION & READING 401/21/2020 - 05/22/2020 11:00 AM - 12:50 PM MW 9 San Elijo Enroll Now
3444 ENGL 100 : COMPOSITION & READING 401/21/2020 - 05/22/2020 8:00 AM - 12:00 PM F 16 San Elijo Enroll Now
3569 ENGL 100 : COMPOSITION & READING 402/03/2020 - 05/20/2020 8:30 AM - 10:45 AM MW 24 Oceanside Enroll Now
2861 ENGL 201 : CRITICAL THINKING, COMP & LIT 401/21/2020 - 05/22/2020 9:00 AM - 10:50 AM MW 3 Oceanside Enroll Now
2866 ENGL 201 : CRITICAL THINKING, COMP & LIT 401/21/2020 - 05/22/2020 1:30 PM - 3:20 PM MW 1 Oceanside Enroll Now
2871 ENGL 201 : CRITICAL THINKING, COMP & LIT 401/21/2020 - 05/22/2020 6:00 PM - 9:50 PM W 4 Oceanside Enroll Now
2873 ENGL 201 : CRITICAL THINKING, COMP & LIT 401/21/2020 - 05/22/2020 6:00 PM - 7:50 PM MW 1 Oceanside Enroll Now
2876 ENGL 201 : CRITICAL THINKING, COMP & LIT 401/21/2020 - 05/22/2020 8:00 AM - 12:00 PM F 1 San Elijo Enroll Now
2881 ENGL 201 : CRITICAL THINKING, COMP & LIT 401/21/2020 - 05/22/2020 6:00 PM - 7:50 PM MW 1 San Elijo Enroll Now
2885 ENGL 201 : CRITICAL THINKING, COMP & LIT 401/25/2020 - 05/16/2020 8:00 AM - 12:20 PM S 10 Oceanside Enroll Now
3536 ENGL 201 : CRITICAL THINKING, COMP & LIT 401/21/2020 - 05/22/2020 9:00 AM - 10:50 AM MW 1 Oceanside Enroll Now
2843 ENGL 202 : CRITICAL THINKING & COMP 401/21/2020 - 05/22/2020 7:00 AM - 8:50 AM MW 3 Oceanside Enroll Now
3446 ENGL 202 : CRITICAL THINKING & COMP 401/21/2020 - 05/22/2020 7:00 AM - 8:50 AM MW 9 Oceanside Enroll Now
2836 ENGL 280 : CREATIVE WRITING 302/04/2020 - 05/21/2020 1:30 PM - 3:05 PM TTH 6 San Elijo Enroll Now
1096 ESL 20 : LISTENING/SPEAKING-NON NATIVES 301/21/2020 - 05/22/2020 10:30 AM - 11:45 AM MW 20 Oceanside Enroll Now
1086 ESL 30 : READING/VOCAB DEV-NON NATIVES 301/21/2020 - 05/22/2020 9:00 AM - 10:15 AM MW 19 Oceanside Enroll Now
1087 ESL 40 : GRAMMAR FOR NON-NATIVE SPEAKER 301/21/2020 - 05/22/2020 12:00 PM - 1:15 PM MW 21 Oceanside Enroll Now
1093 ESL 40 : GRAMMAR FOR NON-NATIVE SPEAKER 302/04/2020 - 05/19/2020 6:00 PM - 8:50 PM T 20 Oceanside Enroll Now
1092 ESL 80 : ADV GRAMMAR FOR NN SPEAKERS 302/04/2020 - 05/19/2020 10:30 AM - 11:45 AM TTH 15 Oceanside Enroll Now
1094 ESL 149 : INTRO ACAD WRIT MULTILING BKG 402/03/2020 - 05/20/2020 1:30 PM - 3:50 PM M 21 Oceanside Enroll Now
1088 ESL 150 : INTRO COLL COMP MULTILING BKG 402/04/2020 - 05/21/2020 12:00 PM - 2:20 PM T 14 Oceanside Enroll Now
1090 ESL 150 : INTRO COLL COMP MULTILING BKG 402/03/2020 - 05/20/2020 6:00 PM - 9:05 PM M 20 Oceanside Enroll Now
2566 FILM 101 : INTRO TO FILM 301/27/2020 - 05/18/2020 12:00 PM - 3:10 PM M 1 Oceanside Enroll Now
2569 FILM 101 : INTRO TO FILM 301/21/2020 - 05/22/2020 1:00 PM - 4:00 PM F 4 San Elijo Enroll Now
2578 FILM 101 : INTRO TO FILM 301/25/2020 - 05/16/2020 9:00 AM - 12:10 PM S 25 Oceanside Enroll Now
2584 FILM 101 : INTRO TO FILM 301/21/2020 - 05/22/2020 6:30 PM - 9:20 PM TH 25 Oceanside Enroll Now
2579 FILM 105 : MEDIA WRITING 301/21/2020 - 05/22/2020 6:30 PM - 9:20 PM TH 6 Oceanside Enroll Now
2562 FILM 111 : FILM HIST I: 1880-1945 301/21/2020 - 05/22/2020 3:30 PM - 6:20 PM TH 9 Oceanside Enroll Now
2560 FILM 112 : FILM HIST II: 1945-PRESENT 301/21/2020 - 05/22/2020 12:00 PM - 2:50 PM W 3 Oceanside Enroll Now
2559 FILM 211 : IDENTITY & FILM 301/21/2020 - 05/22/2020 6:00 PM - 8:50 PM W 19 Oceanside Enroll Now
2447 FREN 101 : ELEM FRENCH 1ST SEMESTER 401/21/2020 - 05/22/2020 9:00 AM - 10:45 AM MW 5 Oceanside Enroll Now
2455 FREN 202 : INTER FRENCH 4TH SEMESTER 403/24/2020 - 05/14/2020 11:00 AM - 12:45 PM TTH 23 Online Enroll Now
1037 GEOG 101L : PHYSICAL GEOGRAPHY LAB 101/21/2020 - 05/22/2020 1:30 PM - 4:20 PM W 2 Oceanside Enroll Now
3497 GEOG 101L : PHYSICAL GEOGRAPHY LAB 101/21/2020 - 05/22/2020 6:00 PM - 8:50 PM TH 12 Oceanside Enroll Now
1890 GEOL 101 : PHYSICAL GEOLOGY 301/21/2020 - 05/22/2020 9:00 AM - 10:15 AM MW 24 San Elijo Enroll Now
2011 HEAL 101 : PRINCIPLES OF HEALTH 302/04/2020 - 05/19/2020 11:30 AM - 1:05 PM TTH 13 Oceanside Enroll Now
2012 HEAL 101 : PRINCIPLES OF HEALTH 302/03/2020 - 05/20/2020 12:00 PM - 1:35 PM MW 22 Oceanside Enroll Now
2014 HEAL 101 : PRINCIPLES OF HEALTH 302/03/2020 - 05/22/2020 1:00 AM - 1:00 AM ONL 2 Online Enroll Now
2016 HEAL 101 : PRINCIPLES OF HEALTH 303/23/2020 - 05/18/2020 1:00 AM - 1:00 AM ONL 35 Online Enroll Now
2017 HEAL 180 : INTRODUCTION TO PUBLIC HEALTH 302/03/2020 - 05/22/2020 1:00 AM - 1:00 AM ONL 21 Online Enroll Now
2018 HEAL 200 : FIRST AID AND SAFETY 102/21/2020 - 03/13/2020 9:00 AM - 1:05 PM F 8 Oceanside Enroll Now
2367 HIST 102 : HISTORY MODERN OF MIDDLE EAST 301/21/2020 - 05/22/2020 1:30 PM - 2:45 PM MW 22 Oceanside Enroll Now
2364 HIST 104 : MODERN EURO HIST 302/03/2020 - 05/20/2020 1:30 PM - 3:05 PM MW 32 San Elijo Enroll Now
2361 HIST 107 : EAST ASIAN SOCIETIES 301/21/2020 - 05/22/2020 9:00 AM - 10:15 AM MW 27 Oceanside Enroll Now
2384 HIST 110 : UNITED STATES HISTORY TO 1877 301/21/2020 - 05/22/2020 9:00 AM - 10:15 AM MW 14 San Elijo Enroll Now
2392 HIST 111 : US HISTORY SINCE 1877 301/21/2020 - 05/22/2020 7:30 AM - 8:45 AM MW 2 Oceanside Enroll Now
2396 HIST 111 : US HISTORY SINCE 1877 301/21/2020 - 05/22/2020 6:00 PM - 8:50 PM TH 10 Oceanside Enroll Now
2398 HIST 111 : US HISTORY SINCE 1877 301/21/2020 - 05/22/2020 12:00 PM - 1:15 PM MW 7 San Elijo Enroll Now
2402 HIST 111 : US HISTORY SINCE 1877 302/05/2020 - 05/20/2020 6:00 PM - 9:25 PM W 32 Oceanside Enroll Now
2403 HIST 111 : US HISTORY SINCE 1877 303/23/2020 - 05/18/2020 1:00 AM - 1:00 AM ONL 4 Online Enroll Now
2404 HIST 111 : US HISTORY SINCE 1877 303/23/2020 - 05/18/2020 1:00 AM - 1:00 AM ONL 8 Online Enroll Now
3060 HIST 115H : WOMEN IN AMER HISTORY (HONORS) 301/21/2020 - 05/22/2020 1:30 PM - 2:45 PM MW 3 Oceanside Enroll Now
3572 HORT 115 : SOIL SCIENCE 301/27/2020 - 05/18/2020 4:30 PM - 6:30 PM M 10 Oceanside Enroll Now
3574 HORT 116 : PLANT SCIENCE 401/21/2020 - 05/22/2020 1:30 PM - 3:00 PM MW 14 Oceanside Enroll Now
1928 HORT 121 : SUSTAIN LANDSCAPE & TURF MGMT 301/21/2020 - 05/22/2020 5:00 PM - 7:00 PM TH 7 Oceanside Enroll Now
1931 HORT 127 : LANDSCAPE DESIGN 301/21/2020 - 05/22/2020 5:00 PM - 7:00 PM W 2 Oceanside Enroll Now
1937 HORT 149 : VINEYARD PRODUCTION & MGMT 301/21/2020 - 05/22/2020 4:45 PM - 6:50 PM M 4 Oceanside Enroll Now
1442 HOSP 100 : INTRO TO HOSP MANAGEMENT 301/21/2020 - 05/22/2020 5:00 PM - 6:20 PM M 27 Online Enroll Now
1443 HOSP 100 : INTRO TO HOSP MANAGEMENT 302/03/2020 - 05/22/2020 1:00 AM - 1:00 AM ONL 29 Online Enroll Now
1444 HOSP 100 : INTRO TO HOSP MANAGEMENT 302/18/2020 - 05/18/2020 1:00 AM - 1:00 AM ONL 21 Online Enroll Now
1445 HOSP 114 : HOSPITALITY LAW 302/03/2020 - 05/22/2020 1:00 AM - 1:00 AM ONL 12 Online Enroll Now
1446 HOSP 130 : CONFERENCE & SPEC EVENT MGMT 302/03/2020 - 05/22/2020 1:00 AM - 1:00 AM ONL 22 Online Enroll Now
1447 HOSP 133 : FRONT OFFICE MANAGEMENT 302/03/2020 - 05/22/2020 1:00 AM - 1:00 AM ONL 27 Online Enroll Now
1448 HOSP 153 : RESTAURANT MGMT 302/05/2020 - 05/20/2020 5:00 PM - 6:20 PM W 28 Online Enroll Now
1981 HSAGT 10 : AMERICAN GOVERNMENT 501/22/2020 - 03/11/2020 6:00 PM - 9:30 PM MW 9 CLC Enroll Now
1982 HSAGT 10 : AMERICAN GOVERNMENT 503/24/2020 - 05/14/2020 8:30 AM - 10:05 AM TTH 21 CLC Enroll Now
1983 HSECN 10 : ECONOMICS 501/21/2020 - 03/12/2020 10:30 AM - 12:10 PM MTWT15 CLC Enroll Now
1984 HSECN 10 : ECONOMICS 501/21/2020 - 03/12/2020 6:00 PM - 9:10 PM TTH 17 CLC Enroll Now
1985 HSECN 10 : ECONOMICS 503/23/2020 - 05/14/2020 12:30 PM - 2:05 PM MTWT38 CLC Enroll Now
1986 HSECN 10 : ECONOMICS 503/23/2020 - 05/13/2020 6:00 PM - 9:10 PM MW 38 CLC Enroll Now
1970 HSENG 15 : ENGLISH GRAMMAR 1 501/21/2020 - 03/12/2020 10:30 AM - 12:10 PM TTH 13 CLC Enroll Now
1974 HSENG 15 : ENGLISH GRAMMAR 1 501/21/2020 - 03/12/2020 1:00 AM - 1:00 AM ARR 6 CLC Enroll Now
1975 HSENG 15 : ENGLISH GRAMMAR 1 503/23/2020 - 05/14/2020 1:00 AM - 1:00 AM ARR 17 CLC Enroll Now
1973 HSENG 16 : ENGLISH GRAMMAR 2 503/23/2020 - 05/14/2020 1:00 AM - 1:00 AM ONL 16 CLC Enroll Now
1977 HSENG 16 : ENGLISH GRAMMAR 2 501/21/2020 - 05/14/2020 1:00 AM - 1:00 AM ARR 7 CLC Enroll Now
1978 HSENG 16 : ENGLISH GRAMMAR 2 503/23/2020 - 05/14/2020 1:00 AM - 1:00 AM ARR 18 CLC Enroll Now
1969 HSENG 17 : READING AND STUDY STRATEGIES 503/23/2020 - 05/13/2020 6:00 PM - 9:10 PM MW 16 CLC Enroll Now
1958 HSENG 21 : ENGLISH 1 501/22/2020 - 03/11/2020 6:00 PM - 9:30 PM MW 1 CLC Enroll Now
1959 HSENG 21 : ENGLISH 1 503/23/2020 - 05/14/2020 10:30 AM - 12:05 PM MTWT15 CLC Enroll Now
1960 HSENG 22 : ENGLISH 2 501/21/2020 - 03/12/2020 8:30 AM - 10:10 AM MTWT8 CLC Enroll Now
1961 HSENG 22 : ENGLISH 2 503/23/2020 - 05/14/2020 10:30 AM - 12:05 PM MTWT17 CLC Enroll Now
1962 HSENG 23 : ENGLISH 3 501/21/2020 - 03/12/2020 6:00 PM - 9:10 PM TTH 1 CLC Enroll Now
1963 HSENG 23 : ENGLISH 3 501/22/2020 - 03/11/2020 10:30 AM - 12:10 PM MW 9 CLC Enroll Now
1964 HSENG 23 : ENGLISH 3 503/23/2020 - 05/13/2020 6:00 PM - 9:10 PM MW 17 CLC Enroll Now
1966 HSENG 25 : ENGLISH 4 503/23/2020 - 05/14/2020 1:00 AM - 1:00 AM ONL 13 CLC Enroll Now
1967 HSENG 25 : ENGLISH 4 503/23/2020 - 05/13/2020 8:30 AM - 10:05 AM MW 10 CLC Enroll Now
1968 HSENG 25 : ENGLISH 4 503/24/2020 - 05/14/2020 6:00 PM - 9:10 PM TTH 15 CLC Enroll Now
3501 HSENG 25 : ENGLISH 4 501/21/2020 - 03/12/2020 8:30 AM - 10:10 AM MTWT1 CLC Enroll Now
1979 HSIFA 11 : INTRO TO FINE ARTS 1 501/22/2020 - 03/11/2020 6:00 PM - 9:30 PM MW 23 CLC Enroll Now
1980 HSIFA 12 : INTRO TO FINE ARTS 2 503/24/2020 - 05/14/2020 6:00 PM - 9:10 PM TTH 28 CLC Enroll Now
1991 HSMTH 11 : BASIC SKILLS MATH 1 501/21/2020 - 03/12/2020 10:30 AM - 12:10 PM MTWT16 CLC Enroll Now
1992 HSMTH 11 : BASIC SKILLS MATH 1 501/21/2020 - 03/12/2020 6:00 PM - 9:10 PM TTH 13 CLC Enroll Now
1993 HSMTH 11 : BASIC SKILLS MATH 1 503/23/2020 - 05/14/2020 8:30 AM - 10:05 AM MTWT23 CLC Enroll Now
1994 HSMTH 12 : BASIC SKILLS MATH 2 501/21/2020 - 03/12/2020 10:30 AM - 12:10 PM MTWT6 CLC Enroll Now
1995 HSMTH 12 : BASIC SKILLS MATH 2 501/21/2020 - 03/12/2020 6:00 PM - 9:10 PM TTH 13 CLC Enroll Now
1996 HSMTH 12 : BASIC SKILLS MATH 2 503/23/2020 - 05/13/2020 6:00 PM - 9:10 PM MW 23 CLC Enroll Now
1997 HSMTH 13 : BASIC SKILLS MATH 3 501/21/2020 - 03/12/2020 12:30 PM - 2:10 PM MTWT3 CLC Enroll Now
1998 HSMTH 13 : BASIC SKILLS MATH 3 503/23/2020 - 05/14/2020 8:30 AM - 10:05 AM MTWT20 CLC Enroll Now
1999 HSMTH 13 : BASIC SKILLS MATH 3 503/23/2020 - 05/13/2020 6:00 PM - 9:10 PM MW 22 CLC Enroll Now
2000 HSMTH 20 : ALGEBRA ESSENTIALS 1 501/21/2020 - 03/12/2020 8:30 AM - 10:10 AM MTWT6 CLC Enroll Now
2001 HSMTH 20 : ALGEBRA ESSENTIALS 1 501/22/2020 - 03/11/2020 6:00 PM - 9:30 PM MW 8 CLC Enroll Now
2002 HSMTH 20 : ALGEBRA ESSENTIALS 1 503/23/2020 - 05/14/2020 12:30 PM - 2:05 PM MTWT19 CLC Enroll Now
2003 HSMTH 21 : ALGEBRA ESSENTIALS 2 503/23/2020 - 05/14/2020 10:30 AM - 12:05 PM MTWT5 CLC Enroll Now
2004 HSMTH 21 : ALGEBRA ESSENTIALS 2 503/24/2020 - 05/14/2020 6:00 PM - 9:10 PM TTH 17 CLC Enroll Now
2007 HSSCI 11 : PHYSICAL SCIENCE 1-CHEMISTRY 501/21/2020 - 03/12/2020 8:30 AM - 10:10 AM MTWT16 CLC Enroll Now
2008 HSSCI 12 : PHYSICAL SCIENCE 2-PHYSICS 503/24/2020 - 05/14/2020 6:00 PM - 9:10 PM TTH 24 CLC Enroll Now
2006 HSSCI 22 : LIFE SCIENCE 2-HUMAN ANAT/PHYS 503/23/2020 - 05/14/2020 12:30 PM - 2:05 PM MTWT19 CLC Enroll Now
2005 HSSCI 23 : LIFE SCIENCE 1B ANIMAL BIOLOGY 501/22/2020 - 03/11/2020 6:00 PM - 9:30 PM MW 8 CLC Enroll Now
1987 HSUSH 11 : US HISTORY 1 501/21/2020 - 03/12/2020 8:30 AM - 10:10 AM MTWT4 CLC Enroll Now
1988 HSUSH 12 : US HISTORY 2 503/23/2020 - 05/14/2020 10:30 AM - 12:05 PM MTWT22 CLC Enroll Now
1989 HSUSH 12 : US HISTORY 2 503/24/2020 - 05/14/2020 6:00 PM - 9:10 PM TTH 24 CLC Enroll Now
2009 HSWFP 11 : APPLIED COMPUTER SKILLS 501/22/2020 - 03/11/2020 2:15 PM - 5:50 PM MW 23 CLC Enroll Now
2010 HSWFP 11 : APPLIED COMPUTER SKILLS 503/23/2020 - 05/13/2020 2:15 PM - 5:25 PM MW 23 CLC Enroll Now
1990 HSWHG 11 : WORLD HIST AND GEOG 1 501/21/2020 - 03/12/2020 12:30 PM - 2:10 PM MTWT1 CLC Enroll Now
2822 HUMN 101 : INTRO TO THE ARTS 301/21/2020 - 05/22/2020 6:00 PM - 8:50 PM TH 7 Oceanside Enroll Now
2462 ITAL 101 : ELEM ITALIAN 1ST SEMESTER 402/18/2020 - 05/18/2020 1:00 AM - 1:00 AM ONL 1 Online Enroll Now
2464 ITAL 102 : ELEM ITALIAN 2ND SEMESTER 403/24/2020 - 05/14/2020 9:30 AM - 11:15 AM TTH 24 Online Enroll Now
2466 ITAL 121 : INTRO TO ITALIAN CULTURE 302/03/2020 - 05/22/2020 1:00 AM - 1:00 AM ONL 10 Online Enroll Now
2471 JAPN 101 : ELEM JAPANESE 1ST SEMESTER 401/21/2020 - 05/22/2020 3:30 PM - 5:15 PM MW 21 Oceanside Enroll Now
3520 JAPN 121 : INTRO TO JAPANESE CULTURE 302/03/2020 - 05/22/2020 1:00 AM - 1:00 AM ONL 6 Online Enroll Now
2036 KINE 100 : FUNCTIONAL RESISTANCE TRAINING 102/03/2020 - 05/20/2020 8:45 AM - 10:20 AM MW 10 Oceanside Enroll Now
2112 KINE 100 : FUNCTIONAL RESISTANCE TRAINING 102/03/2020 - 05/20/2020 10:30 AM - 12:05 PM MW 10 Oceanside Enroll Now
2038 KINE 112 : CARDIORESP STABILIZATION TRNG 101/21/2020 - 05/22/2020 7:30 AM - 8:45 AM MW 20 Oceanside Enroll Now
2046 KINE 113 : CARDIORESP STRENGTH TRNG 101/21/2020 - 05/22/2020 7:30 AM - 8:45 AM MW 23 Oceanside Enroll Now
2047 KINE 114 : CARDIORESPIRATORY POWER TRAIN 101/21/2020 - 05/22/2020 7:30 AM - 8:45 AM MW 22 Oceanside Enroll Now
2069 KINE 145 : YOGA TEACHER TRNG FOUNDATION 302/04/2020 - 03/26/2020 10:30 AM - 12:30 PM TTH 2 Oceanside Enroll Now
2071 KINE 147 : YOGA TEACHER TRAIN DEVELOPMENT 304/01/2020 - 05/18/2020 12:15 PM - 2:15 PM MW 3 San Elijo Enroll Now
2073 KINE 147 : YOGA TEACHER TRAIN DEVELOPMENT 303/31/2020 - 05/14/2020 10:30 AM - 12:30 PM TTH 7 Oceanside Enroll Now
2075 KINE 149 : YOGA TEACHER TRAIN INTEGRATION 302/04/2020 - 03/26/2020 11:00 AM - 1:00 PM TTH 3 San Elijo Enroll Now
2062 KINE 150 : BEGINNING YOGA 102/04/2020 - 05/19/2020 3:30 PM - 5:05 PM TTH 9 Oceanside Enroll Now
2064 KINE 150 : BEGINNING YOGA 102/04/2020 - 05/21/2020 9:00 AM - 10:35 AM TTH 5 San Elijo Enroll Now
2065 KINE 150 : BEGINNING YOGA 102/03/2020 - 05/20/2020 5:00 PM - 6:35 PM MW 5 San Elijo Enroll Now
3548 KINE 150 : BEGINNING YOGA 102/04/2020 - 05/19/2020 5:15 PM - 6:50 PM TTH 20 Oceanside Enroll Now
2085 KINE 154 : INTERMEDIATE YOGA 102/04/2020 - 05/21/2020 9:00 AM - 10:35 AM TTH 11 San Elijo Enroll Now
2086 KINE 154 : INTERMEDIATE YOGA 102/03/2020 - 05/20/2020 5:00 PM - 6:35 PM MW 12 San Elijo Enroll Now
2088 KINE 154 : INTERMEDIATE YOGA 102/04/2020 - 05/19/2020 3:30 PM - 5:05 PM TTH 18 Oceanside Enroll Now
3549 KINE 154 : INTERMEDIATE YOGA 102/04/2020 - 05/19/2020 5:15 PM - 6:50 PM TTH 25 Oceanside Enroll Now
2092 KINE 155 : ADVANCED YOGA 102/04/2020 - 05/21/2020 9:00 AM - 10:35 AM TTH 16 San Elijo Enroll Now
2093 KINE 155 : ADVANCED YOGA 102/03/2020 - 05/20/2020 5:00 PM - 6:35 PM MW 14 San Elijo Enroll Now
2095 KINE 155 : ADVANCED YOGA 102/04/2020 - 05/19/2020 3:30 PM - 5:05 PM TTH 23 Oceanside Enroll Now
3550 KINE 155 : ADVANCED YOGA 102/04/2020 - 05/19/2020 5:15 PM - 6:50 PM TTH 25 Oceanside Enroll Now
2042 KINE 156 : CORRECTIVE FLEXIBILITY TRNG 102/03/2020 - 05/20/2020 9:30 AM - 11:05 AM MW 20 Oceanside Enroll Now
2080 KINE 157 : ACTIVE FLEXIBILITY TRAINING 102/03/2020 - 05/20/2020 9:30 AM - 11:05 AM MW 21 Oceanside Enroll Now
2081 KINE 158 : FUNCTIONAL FLEXIBILITY TRNG 102/03/2020 - 05/20/2020 9:30 AM - 11:05 AM MW 24 Oceanside Enroll Now
2077 KINE 159 : YOGA TEACHER TRNG IMPLEMENT 303/31/2020 - 05/14/2020 11:00 AM - 1:00 PM TTH 5 San Elijo Enroll Now
2049 KINE 190 : INTRO TO KINESIOLOGY 301/21/2020 - 05/22/2020 3:00 PM - 4:15 PM MW 8 Oceanside Enroll Now
2051 KINE 190 : INTRO TO KINESIOLOGY 303/23/2020 - 05/18/2020 1:00 AM - 1:00 AM ONL 5 Online Enroll Now
2058 KINE 203 : TECHNIQUES ATHLETIC TRNG 301/21/2020 - 05/22/2020 9:00 AM - 10:00 AM MW 12 Oceanside Enroll Now
2054 KINE 204 : TECH & ANAL OF FIT/WGHT TRNG 301/21/2020 - 05/22/2020 4:30 PM - 5:20 PM MW 21 Oceanside Enroll Now
2053 KINE 210 : EXERCISE RX FOR SPEC POPS 302/03/2020 - 05/22/2020 1:00 AM - 1:00 AM ONL 20 Online Enroll Now
3456 KINE 210 : EXERCISE RX FOR SPEC POPS 301/21/2020 - 05/22/2020 1:30 PM - 2:45 PM MW 22 Oceanside Enroll Now
2981 LIBR 101 : COLLEGE RESEARCH SKILLS 103/23/2020 - 05/18/2020 1:00 AM - 1:00 AM ONL 13 Online Enroll Now
2823 LIT 120 : INTRO TO LITERATURE 301/21/2020 - 05/22/2020 9:00 AM - 10:15 AM MW 20 Oceanside Enroll Now
2825 LIT 120 : INTRO TO LITERATURE 301/21/2020 - 05/22/2020 6:00 PM - 8:50 PM W 16 Oceanside Enroll Now
2826 LIT 120 : INTRO TO LITERATURE 302/03/2020 - 05/20/2020 8:45 AM - 10:20 AM MW 23 San Elijo Enroll Now
2828 LIT 261 : ENGL LIT: ROMANTIC TO CONTEMP 301/21/2020 - 05/22/2020 10:30 AM - 11:45 AM MW 9 San Elijo Enroll Now
2986 LRNS 46 : ENGLISH ESSENTIALS- LRNG DSBD 302/04/2020 - 05/19/2020 10:30 AM - 12:05 PM TTH 12 Oceanside Enroll Now
3011 MAP 56 : INTRO TO PATIENT ADVOCACY 301/27/2020 - 05/18/2020 6:30 PM - 9:40 PM M 23 Oceanside Enroll Now
3015 MAP 64 : MEDICAL INSURANCE AND BILLING 301/27/2020 - 05/18/2020 6:30 PM - 9:40 PM M 12 Oceanside Enroll Now
1346 MAT 110 : DIG IMAGING 1: ADOBE PHOTOSHOP 301/21/2020 - 05/22/2020 5:30 PM - 8:00 PM TH 7 Oceanside Enroll Now
1350 MAT 110 : DIG IMAGING 1: ADOBE PHOTOSHOP 302/03/2020 - 05/22/2020 1:00 AM - 1:00 AM ONL 3 Online Enroll Now
1352 MAT 110 : DIG IMAGING 1: ADOBE PHOTOSHOP 303/23/2020 - 05/18/2020 1:00 AM - 1:00 AM ONL 5 Online Enroll Now
1358 MAT 125 : WEB DESIGN 1: FUNDAMENTALS 301/27/2020 - 05/18/2020 5:30 PM - 8:00 PM M 1 Oceanside Enroll Now
1362 MAT 125 : WEB DESIGN 1: FUNDAMENTALS 302/03/2020 - 05/22/2020 1:00 AM - 1:00 AM ONL 7 Online Enroll Now
1370 MAT 150 : ANIMATION & INTERACTIVITY 301/21/2020 - 05/22/2020 11:00 AM - 12:00 PM MW 3 Oceanside Enroll Now
1390 MAT 235 : WEB DESIGN 3: UX/UI DESIGN 301/21/2020 - 05/22/2020 9:00 AM - 10:00 AM MW 10 Oceanside Enroll Now
1394 MAT 290 : PORTFOLIO DEVELOPMENT 301/27/2020 - 05/18/2020 2:00 PM - 5:10 PM M 1 Oceanside Enroll Now
3167 MATH 32 : INTERMEDIATE ALGEBRA SUPPORT 201/21/2020 - 05/22/2020 1:30 PM - 2:00 PM MW 20 Oceanside Enroll Now
3153 MATH 34 : LRNG ASSIST FOR APPLIED CALC 201/21/2020 - 05/22/2020 1:30 PM - 3:20 PM TH 5 Oceanside Enroll Now
3154 MATH 34 : LRNG ASSIST FOR APPLIED CALC 201/21/2020 - 05/22/2020 1:00 PM - 1:50 PM MW 18 San Elijo Enroll Now
3188 MATH 36 : LRNG ASSIST FOR PRECALC 201/21/2020 - 05/22/2020 3:00 PM - 3:50 PM MW 8 Oceanside Enroll Now
3459 MATH 36 : LRNG ASSIST FOR PRECALC 202/03/2020 - 05/20/2020 1:00 AM - 1:00 AM ONL 18 Online Enroll Now
3070 MATH 64 : INTERMEDIATE ALGEBRA 401/21/2020 - 05/22/2020 11:00 AM - 12:50 PM MW 20 Oceanside Enroll Now
3071 MATH 64 : INTERMEDIATE ALGEBRA 402/03/2020 - 05/22/2020 1:00 AM - 1:00 AM ONL 12 Online Enroll Now
3206 MATH 64 : INTERMEDIATE ALGEBRA 402/07/2020 - 05/22/2020 8:00 AM - 10:50 AM F 19 Oceanside Enroll Now
3122 MATH 102 : MATH FUNDAMENTALS II 401/21/2020 - 05/22/2020 9:00 AM - 10:45 AM MW 1 Oceanside Enroll Now
3139 MATH 102 : MATH FUNDAMENTALS II 401/21/2020 - 05/22/2020 11:00 AM - 12:45 PM MW 20 San Elijo Enroll Now
3073 MATH 103 : STATISTICS 401/21/2020 - 05/22/2020 9:00 AM - 10:50 AM F 16 Oceanside Enroll Now
3086 MATH 103 : STATISTICS 401/21/2020 - 05/22/2020 9:00 AM - 10:50 AM MW 3 San Elijo Enroll Now
3128 MATH 103 : STATISTICS 401/21/2020 - 05/22/2020 1:30 PM - 3:20 PM MW 15 San Elijo Enroll Now
3136 MATH 103 : STATISTICS 402/03/2020 - 05/20/2020 8:30 AM - 10:45 AM MW 11 Oceanside Enroll Now
3578 MATH 106 : CONCEPTS & STRUCTURES MATH II 301/21/2020 - 05/22/2020 1:30 PM - 2:30 PM MW 12 Oceanside Enroll Now
3077 MATH 115 : CALCULUS W/ APPLICATIONS 401/21/2020 - 05/22/2020 1:30 PM - 3:20 PM MW 6 Oceanside Enroll Now
3089 MATH 115 : CALCULUS W/ APPLICATIONS 401/21/2020 - 05/22/2020 11:00 AM - 12:50 PM MW 18 San Elijo Enroll Now
3117 MATH 115 : CALCULUS W/ APPLICATIONS 401/21/2020 - 05/22/2020 6:00 PM - 7:50 PM MW 2 Oceanside Enroll Now
3101 MATH 126 : PRE-CALCULUS I: COLLEGE ALGEBR 401/21/2020 - 05/22/2020 9:00 AM - 10:50 AM MW 3 CLC Enroll Now
3106 MATH 126 : PRE-CALCULUS I: COLLEGE ALGEBR 401/21/2020 - 05/22/2020 9:00 AM - 10:50 AM MTH 20 San Elijo Enroll Now
3187 MATH 126 : PRE-CALCULUS I: COLLEGE ALGEBR 401/21/2020 - 05/22/2020 1:00 PM - 2:50 PM MW 8 Oceanside Enroll Now
3460 MATH 126 : PRE-CALCULUS I: COLLEGE ALGEBR 402/03/2020 - 05/20/2020 11:30 AM - 1:20 PM MW 18 Oceanside Enroll Now
3527 MATH 126 : PRE-CALCULUS I: COLLEGE ALGEBR 401/21/2020 - 05/22/2020 1:30 PM - 3:20 PM MW 19 San Elijo Enroll Now
3113 MATH 131 : PRE-CALC II: TRIGONOMETRY 401/21/2020 - 05/22/2020 9:00 AM - 10:50 AM MW 1 Oceanside Enroll Now
3144 MATH 131 : PRE-CALC II: TRIGONOMETRY 403/23/2020 - 05/18/2020 7:00 AM - 9:05 AM MTWT9 Oceanside Enroll Now
3498 MATH 131 : PRE-CALC II: TRIGONOMETRY 401/21/2020 - 05/22/2020 11:00 AM - 12:50 PM MW 17 CLC Enroll Now
3110 MATH 150 : CALCULUS & ANALYTIC GEOMETRY I 501/21/2020 - 05/22/2020 2:00 PM - 4:20 PM MW 2 San Elijo Enroll Now
3124 MATH 150 : CALCULUS & ANALYTIC GEOMETRY I 501/21/2020 - 05/22/2020 1:00 PM - 3:20 PM MW 16 Oceanside Enroll Now
3061 MATH 150H : CALC & ANALYTIC GEOMETRY HON 501/21/2020 - 05/22/2020 11:00 AM - 1:20 PM MW 12 Oceanside Enroll Now
3199 MATH 155 : CALC & ANALYTIC GEOMETRY II 401/21/2020 - 05/22/2020 9:00 AM - 10:50 AM MW 20 San Elijo Enroll Now
3172 MATH 260 : CALC & ANALYTIC GEOMETRY III 401/21/2020 - 05/22/2020 6:00 PM - 6:45 PM MW 2 Oceanside Enroll Now
3196 MATH 265 : DIFFERENTIAL EQUATIONS 401/21/2020 - 05/22/2020 3:30 PM - 5:20 PM MW 4 Oceanside Enroll Now
3489 MATH 270 : LINEAR ALGEBRA 401/21/2020 - 05/22/2020 3:30 PM - 5:20 PM MW 15 Oceanside Enroll Now
3280 MTEC 141 : SOUND REINFORCEMENT II 201/27/2020 - 05/18/2020 5:30 PM - 7:00 PM M 13 Oceanside Enroll Now
3284 MTEC 211 : RECORDING ARTS IV 201/21/2020 - 05/22/2020 5:30 PM - 7:00 PM W 11 Oceanside Enroll Now
3288 MTEC 230 : ELECTRONIC MUS SOUND DESN 201/27/2020 - 05/18/2020 1:30 PM - 3:00 PM M 9 Oceanside Enroll Now
3299 MUS 100 : INTRO TO MUSIC THEORY 302/03/2020 - 05/22/2020 1:00 AM - 1:00 AM ONL 1 Online Enroll Now
3300 MUS 100 : INTRO TO MUSIC THEORY 302/03/2020 - 05/22/2020 1:00 AM - 1:00 AM ONL 19 Online Enroll Now
3343 MUS 100 : INTRO TO MUSIC THEORY 302/04/2020 - 05/19/2020 3:00 PM - 4:15 PM T 23 Online Enroll Now
3301 MUS 101 : MUSIC THEORY I 301/21/2020 - 05/22/2020 10:30 AM - 11:45 AM MW 11 Oceanside Enroll Now
3302 MUS 103 : MUSICIANSHIP I 102/05/2020 - 05/20/2020 8:00 AM - 10:05 AM W 22 Oceanside Enroll Now
3519 MUS 112 : AMERICAN POPULAR MUSIC 302/03/2020 - 05/22/2020 1:00 AM - 1:00 AM ONL 20 Online Enroll Now
3398 MUS 114 : HISTORY OF ROCK & ROLL 303/23/2020 - 05/18/2020 1:00 AM - 1:00 AM ONL 9 Online Enroll Now
3454 MUS 114 : HISTORY OF ROCK & ROLL 301/21/2020 - 05/22/2020 2:00 PM - 4:50 PM TH 4 Oceanside Enroll Now
3309 MUS 115 : INTRO TO WESTERN MUSIC 301/21/2020 - 05/22/2020 12:00 PM - 1:15 PM MW 19 Oceanside Enroll Now
3397 MUS 115 : INTRO TO WESTERN MUSIC 303/23/2020 - 05/18/2020 1:00 AM - 1:00 AM ONL 28 Online Enroll Now
3396 MUS 116 : A SURVEY OF WORLD MUSIC 302/07/2020 - 05/22/2020 9:30 AM - 11:20 AM F 29 Oceanside Enroll Now
3321 MUS 120 : PIANO I 101/27/2020 - 05/18/2020 6:00 PM - 6:30 PM M 5 Oceanside Enroll Now
3375 MUS 121 : PIANO II 101/27/2020 - 05/18/2020 6:00 PM - 6:30 PM M 20 Oceanside Enroll Now
3378 MUS 130 : GUITAR I 101/21/2020 - 05/22/2020 3:00 PM - 3:30 PM W 7 Oceanside Enroll Now
3324 MUS 131 : GUITAR II 101/27/2020 - 05/18/2020 3:00 PM - 3:30 PM M 18 Oceanside Enroll Now
3330 MUS 145A : PERFORMANCE LAB I 101/21/2020 - 05/22/2020 10:15 AM - 11:40 AM F 18 Oceanside Enroll Now
3331 MUS 145B : PERFORMANCE LAB II 101/21/2020 - 05/22/2020 10:15 AM - 11:40 AM F 23 Oceanside Enroll Now
3354 MUS 150B : CONTEMPORARY BIG BAND II 101/28/2020 - 05/12/2020 6:00 PM - 9:10 PM T 22 Oceanside Enroll Now
3358 MUS 152B : SMALL GROUP JAZZ ENSEMBLE II 201/27/2020 - 05/18/2020 12:00 PM - 2:20 PM MW 24 Oceanside Enroll Now
3334 MUS 155A : POP MUSIC ENSEMBLE I 101/27/2020 - 05/18/2020 6:00 PM - 9:10 PM M 19 Oceanside Enroll Now
3357 MUS 155B : POP MUSIC ENSEMBLE II 101/27/2020 - 05/18/2020 6:00 PM - 9:10 PM M 22 Oceanside Enroll Now
3351 MUS 161B : CONCERT CHORALE II 101/28/2020 - 05/12/2020 6:30 PM - 8:40 PM T 27 Oceanside Enroll Now
3336 MUS 165A : CHAMBER CHOIR I 201/28/2020 - 05/14/2020 12:30 PM - 2:20 PM TTH 21 Oceanside Enroll Now
3337 MUS 166A : VOCAL JAZZ ENSEMBLE I 201/28/2020 - 05/14/2020 3:00 PM - 5:20 PM TTH 21 Oceanside Enroll Now
3361 MUS 166B : VOCAL JAZZ ENSEMBLE II 201/28/2020 - 05/14/2020 3:00 PM - 5:20 PM TTH 18 Oceanside Enroll Now
3348 MUS 170B : SYMPHONY ORCHESTRA II 101/29/2020 - 05/13/2020 6:30 PM - 9:40 PM W 37 Oceanside Enroll Now
3339 MUS 201 : ADVANCED MUSIC THEORY 301/21/2020 - 05/22/2020 10:30 AM - 11:45 AM MW 26 Oceanside Enroll Now
3340 MUS 203 : ADVANCED MUSICIANSHIP 101/21/2020 - 05/22/2020 9:00 AM - 10:15 AM MW 26 Oceanside Enroll Now
3607 MUS 241 : ADVANCED VOCAL TECHNIQUES 102/03/2020 - 05/20/2020 3:00 PM - 4:35 PM MW 23 Oceanside Enroll Now
3344 MUS 245A : PERFORMANCE LAB III 101/21/2020 - 05/22/2020 10:15 AM - 11:40 AM F 28 Oceanside Enroll Now
3364 MUS 245B : PERFORMANCE LAB IV 101/21/2020 - 05/22/2020 10:15 AM - 11:40 AM F 24 Oceanside Enroll Now
3355 MUS 250A : CONTEMPORARY BIG BAND III 101/28/2020 - 05/12/2020 6:00 PM - 9:10 PM T 22 Oceanside Enroll Now
3356 MUS 250B : CONTEMPORARY BIG BAND IV 101/28/2020 - 05/12/2020 6:00 PM - 9:10 PM T 25 Oceanside Enroll Now
3359 MUS 252A : SMALL GROUP JAZZ ENSEMBLE III 201/27/2020 - 05/18/2020 12:00 PM - 2:20 PM MW 25 Oceanside Enroll Now
3360 MUS 252B : SMALL GROUP JAZZ ENSEMBLE IV 201/27/2020 - 05/18/2020 12:00 PM - 2:20 PM MW 24 Oceanside Enroll Now
3402 MUS 260 : SONGWRITING 201/21/2020 - 05/22/2020 5:30 PM - 7:00 PM TH 16 Oceanside Enroll Now
3352 MUS 261A : CONCERT CHORALE III 101/28/2020 - 05/12/2020 6:30 PM - 8:40 PM T 38 Oceanside Enroll Now
3353 MUS 261B : CONCERT CHORALE IV 101/28/2020 - 05/12/2020 6:30 PM - 8:40 PM T 40 Oceanside Enroll Now
3362 MUS 266A : VOCAL JAZZ ENSEMBLE III 201/28/2020 - 05/14/2020 3:00 PM - 5:20 PM TTH 23 Oceanside Enroll Now
3363 MUS 266B : VOCAL JAZZ ENSEMBLE IV 201/28/2020 - 05/14/2020 3:00 PM - 5:20 PM TTH 23 Oceanside Enroll Now
3349 MUS 270A : SYMPHONY ORCHESTRA III 101/29/2020 - 05/13/2020 6:30 PM - 9:40 PM W 55 Oceanside Enroll Now
3350 MUS 270B : SYMPHONY ORCHESTRA IV 101/29/2020 - 05/13/2020 6:30 PM - 9:40 PM W 59 Oceanside Enroll Now
1322 NCABE 92 : HS EQUIVALENCY PREPARATION 001/21/2020 - 05/12/2020 10:30 AM - 1:40 PM T 18 CLC Enroll Now
1323 NCABE 92 : HS EQUIVALENCY PREPARATION 001/21/2020 - 05/12/2020 6:00 PM - 9:10 PM T 32 CLC Enroll Now
1324 NCABE 92 : HS EQUIVALENCY PREPARATION 001/22/2020 - 05/13/2020 6:00 PM - 9:10 PM MW 24 CLC Enroll Now
2588 NCABE 92 : HS EQUIVALENCY PREPARATION 001/22/2020 - 05/13/2020 11:30 AM - 2:30 PM W 30 CLC Enroll Now
1199 NCART 12 : PAINTING, ADVANCED 001/23/2020 - 05/14/2020 9:30 AM - 12:20 PM TH 1 CLC Enroll Now
1200 NCART 17 : PAINTING AND DRAWING 001/23/2020 - 05/14/2020 12:30 PM - 3:20 PM TH 2 CLC Enroll Now
1204 NCART 31 : WATERCOLOR PAINTING, BEG 001/21/2020 - 05/12/2020 9:00 AM - 11:50 AM T 1 CLC Enroll Now
1207 NCART 32 : WATERCOLOR PAINTING, INT 001/22/2020 - 05/13/2020 12:30 PM - 3:20 PM W 3 CLC Enroll Now
1209 NCART 35 : WATERCOLOR PAINT ON LOCATION 001/21/2020 - 05/12/2020 12:30 PM - 3:20 PM T 3 CLC Enroll Now
2124 NCENG 15 : ENGLISH GRAMMAR 1 001/21/2020 - 03/12/2020 10:30 AM - 12:10 PM TTH 1 CLC Enroll Now
2128 NCENG 15 : ENGLISH GRAMMAR 1 001/21/2020 - 03/12/2020 1:00 AM - 1:00 AM ARR 1 CLC Enroll Now
2129 NCENG 15 : ENGLISH GRAMMAR 1 003/23/2020 - 05/14/2020 1:00 AM - 1:00 AM ARR 5 CLC Enroll Now
2125 NCENG 16 : ENGLISH GRAMMAR 2 001/21/2020 - 03/12/2020 6:00 PM - 9:10 PM TTH 1 CLC Enroll Now
2126 NCENG 16 : ENGLISH GRAMMAR 2 003/23/2020 - 05/14/2020 8:30 AM - 10:05 AM MTWT5 CLC Enroll Now
2127 NCENG 16 : ENGLISH GRAMMAR 2 003/23/2020 - 05/14/2020 1:00 AM - 1:00 AM ONL 3 CLC Enroll Now
2130 NCENG 16 : ENGLISH GRAMMAR 2 001/21/2020 - 03/12/2020 1:00 AM - 1:00 AM ARR 5 CLC Enroll Now
2131 NCENG 16 : ENGLISH GRAMMAR 2 001/21/2020 - 05/14/2020 1:00 AM - 1:00 AM ARR 5 CLC Enroll Now
2132 NCENG 16 : ENGLISH GRAMMAR 2 003/23/2020 - 05/14/2020 1:00 AM - 1:00 AM ARR 5 CLC Enroll Now
3418 NCENG 17 : READING AND STUDY STRATEGIES 003/23/2020 - 05/13/2020 6:00 PM - 9:10 PM MW 5 CLC Enroll Now
3505 NCENG 21 : PARAGRAPH TO ESSAY 003/23/2020 - 05/14/2020 10:30 AM - 12:05 PM MTWT5 CLC Enroll Now
2115 NCENG 22 : BASIC COMPOSITION 001/21/2020 - 03/12/2020 8:30 AM - 10:10 AM MTWT4 CLC Enroll Now
2116 NCENG 22 : BASIC COMPOSITION 003/23/2020 - 05/14/2020 10:30 AM - 12:05 PM MTWT5 CLC Enroll Now
2117 NCENG 23 : INTERMEDIATE COMPOSITION 001/21/2020 - 03/12/2020 6:00 PM - 9:10 PM TTH 5 CLC Enroll Now
2118 NCENG 23 : INTERMEDIATE COMPOSITION 001/22/2020 - 03/11/2020 10:30 AM - 12:10 PM MW 5 CLC Enroll Now
2119 NCENG 23 : INTERMEDIATE COMPOSITION 003/23/2020 - 05/13/2020 6:00 PM - 9:10 PM MW 5 CLC Enroll Now
2120 NCENG 25 : ADVANCED COMPOSITION 001/21/2020 - 03/12/2020 1:00 AM - 1:00 AM ONL 5 CLC Enroll Now
2121 NCENG 25 : ADVANCED COMPOSITION 003/23/2020 - 05/14/2020 1:00 AM - 1:00 AM ONL 5 CLC Enroll Now
2122 NCENG 25 : ADVANCED COMPOSITION 003/23/2020 - 05/13/2020 8:30 AM - 10:05 AM MW 4 CLC Enroll Now
2123 NCENG 25 : ADVANCED COMPOSITION 003/24/2020 - 05/14/2020 6:00 PM - 9:10 PM TTH 5 CLC Enroll Now
3500 NCENG 25 : ADVANCED COMPOSITION 001/21/2020 - 03/12/2020 8:30 AM - 10:10 AM MTWT5 CLC Enroll Now
1242 NCESL 10 : ESL, LEVEL 1 003/23/2020 - 05/14/2020 6:00 PM - 9:10 PM MTWT30 CLC Enroll Now
1278 NCESL 20 : ESL CONV SKILLS FOR BEG 001/22/2020 - 03/11/2020 8:30 AM - 12:05 PM MW 22 CLC Enroll Now
1280 NCESL 20 : ESL CONV SKILLS FOR BEG 003/24/2020 - 05/14/2020 8:30 AM - 11:40 AM TTH 21 CLC Enroll Now
1281 NCESL 20 : ESL CONV SKILLS FOR BEG 003/24/2020 - 05/14/2020 6:00 PM - 9:10 PM TTH 24 CLC Enroll Now
1283 NCESL 20 : ESL CONV SKILLS FOR BEG 001/25/2020 - 05/16/2020 8:30 AM - 11:50 AM S 15 CLC Enroll Now
1243 NCESL 21 : ESL, LEVEL 2 001/21/2020 - 03/12/2020 8:30 AM - 11:50 AM MTWT1 CLC Enroll Now
1244 NCESL 21 : ESL, LEVEL 2 001/21/2020 - 03/12/2020 6:00 PM - 9:20 PM MTWT2 CLC Enroll Now
1245 NCESL 21 : ESL, LEVEL 2 003/23/2020 - 05/14/2020 8:30 AM - 11:40 AM MTWT30 CLC Enroll Now
1246 NCESL 21 : ESL, LEVEL 2 003/23/2020 - 05/14/2020 6:00 PM - 9:10 PM MTWT30 CLC Enroll Now
3411 NCESL 21 : ESL, LEVEL 2 001/21/2020 - 03/12/2020 5:45 PM - 9:20 PM MTWT23 CLC Enroll Now
3412 NCESL 21 : ESL, LEVEL 2 003/23/2020 - 05/14/2020 5:45 PM - 9:20 PM MTWT24 CLC Enroll Now
1247 NCESL 22 : ESL, LEVEL 3 001/21/2020 - 03/12/2020 8:30 AM - 11:50 AM MTWT3 CLC Enroll Now
1249 NCESL 22 : ESL, LEVEL 3 003/23/2020 - 05/14/2020 8:30 AM - 11:40 AM MTWT28 CLC Enroll Now
1250 NCESL 22 : ESL, LEVEL 3 003/23/2020 - 05/14/2020 6:00 PM - 9:10 PM MTWT30 CLC Enroll Now
1292 NCESL 22 : ESL, LEVEL 3 001/21/2020 - 03/12/2020 12:00 PM - 3:20 PM MTWT13 CLC Enroll Now
1293 NCESL 22 : ESL, LEVEL 3 003/23/2020 - 05/14/2020 12:00 PM - 3:10 PM MTWT28 CLC Enroll Now
1309 NCESL 22 : ESL, LEVEL 3 001/22/2020 - 05/13/2020 5:30 PM - 9:15 PM MW 10 CLC Enroll Now
1317 NCESL 22 : ESL, LEVEL 3 001/21/2020 - 03/12/2020 5:45 PM - 9:20 PM MTWT8 CLC Enroll Now
3413 NCESL 22 : ESL, LEVEL 3 003/23/2020 - 05/14/2020 5:45 PM - 9:20 PM MTWT8 CLC Enroll Now
1294 NCESL 23 : ESL READING & WRITING BEG 001/21/2020 - 03/12/2020 8:30 AM - 11:40 AM TTH 12 CLC Enroll Now
1295 NCESL 23 : ESL READING & WRITING BEG 001/21/2020 - 03/12/2020 6:00 PM - 9:10 PM TTH 7 CLC Enroll Now
1296 NCESL 23 : ESL READING & WRITING BEG 003/23/2020 - 05/13/2020 8:30 AM - 11:40 AM MW 25 CLC Enroll Now
1297 NCESL 23 : ESL READING & WRITING BEG 003/23/2020 - 05/13/2020 6:00 PM - 9:10 PM MW 22 CLC Enroll Now
1943 NCESL 29 : LISTENING/SPEAKING-NON NATIVES 001/21/2020 - 05/22/2020 10:30 AM - 11:45 AM MW 6 CLC Enroll Now
1285 NCESL 30 : ESL CONVERS SKILLS FOR INTER. 001/22/2020 - 03/11/2020 8:30 AM - 12:05 PM MW 23 CLC Enroll Now
1286 NCESL 30 : ESL CONVERS SKILLS FOR INTER. 001/22/2020 - 03/11/2020 12:15 PM - 3:50 PM MW 9 CLC Enroll Now
1287 NCESL 30 : ESL CONVERS SKILLS FOR INTER. 001/23/2020 - 05/14/2020 8:30 AM - 11:40 AM TH 12 CLC Enroll Now
1288 NCESL 30 : ESL CONVERS SKILLS FOR INTER. 001/24/2020 - 05/15/2020 8:30 AM - 11:50 AM F 15 CLC Enroll Now
1289 NCESL 30 : ESL CONVERS SKILLS FOR INTER. 001/25/2020 - 05/16/2020 8:30 AM - 11:50 AM S 11 CLC Enroll Now
1290 NCESL 30 : ESL CONVERS SKILLS FOR INTER. 003/23/2020 - 05/13/2020 8:30 AM - 11:40 AM MW 30 CLC Enroll Now
1291 NCESL 30 : ESL CONVERS SKILLS FOR INTER. 003/23/2020 - 05/13/2020 12:00 PM - 3:10 PM MW 30 CLC Enroll Now
1303 NCESL 30 : ESL CONVERS SKILLS FOR INTER. 001/22/2020 - 03/11/2020 9:15 AM - 12:50 PM MW 16 CLC Enroll Now
1306 NCESL 30 : ESL CONVERS SKILLS FOR INTER. 003/23/2020 - 05/13/2020 9:15 AM - 12:25 PM MW 27 CLC Enroll Now
1307 NCESL 30 : ESL CONVERS SKILLS FOR INTER. 001/22/2020 - 05/13/2020 6:00 PM - 7:40 PM MW 24 CLC Enroll Now
1308 NCESL 30 : ESL CONVERS SKILLS FOR INTER. 001/23/2020 - 05/14/2020 9:30 AM - 12:40 PM TH 4 CLC Enroll Now
1315 NCESL 30 : ESL CONVERS SKILLS FOR INTER. 001/22/2020 - 05/13/2020 9:30 AM - 11:10 AM MW 15 CLC Enroll Now
1251 NCESL 31 : ESL, LEVEL 4 001/21/2020 - 03/12/2020 8:30 AM - 11:50 AM MTWT3 CLC Enroll Now
1253 NCESL 31 : ESL, LEVEL 4 003/23/2020 - 05/14/2020 8:30 AM - 11:40 AM MTWT25 CLC Enroll Now
1254 NCESL 31 : ESL, LEVEL 4 003/23/2020 - 05/14/2020 6:00 PM - 9:10 PM MTWT25 CLC Enroll Now
1311 NCESL 31 : ESL, LEVEL 4 001/22/2020 - 05/13/2020 5:00 PM - 8:40 PM MW 22 CLC Enroll Now
1312 NCESL 31 : ESL, LEVEL 4 001/22/2020 - 05/15/2020 9:00 AM - 11:20 AM MWF 11 CLC Enroll Now
1319 NCESL 31 : ESL, LEVEL 4 001/21/2020 - 05/13/2020 6:00 PM - 8:10 PM MTW 15 CLC Enroll Now
1320 NCESL 31 : ESL, LEVEL 4 001/22/2020 - 05/13/2020 9:00 AM - 12:20 PM MW 7 CLC Enroll Now
1257 NCESL 32 : ESL, LEVEL 5 003/23/2020 - 05/14/2020 8:30 AM - 11:40 AM MTWT24 CLC Enroll Now
1258 NCESL 32 : ESL, LEVEL 5 003/23/2020 - 05/14/2020 6:00 PM - 9:10 PM MTWT25 CLC Enroll Now
1310 NCESL 32 : ESL, LEVEL 5 001/21/2020 - 05/14/2020 5:30 PM - 9:00 PM TTH 12 CLC Enroll Now
1318 NCESL 32 : ESL, LEVEL 5 001/21/2020 - 03/12/2020 5:45 PM - 9:20 PM MTWT5 CLC Enroll Now
3414 NCESL 32 : ESL, LEVEL 5 003/23/2020 - 05/14/2020 5:45 PM - 9:20 PM MTWT9 CLC Enroll Now
1298 NCESL 33 : ESL READING & WRITING INTER 001/21/2020 - 05/12/2020 8:30 AM - 11:40 AM T 17 CLC Enroll Now
1299 NCESL 33 : ESL READING & WRITING INTER 001/21/2020 - 03/12/2020 12:00 PM - 3:10 PM TTH 18 CLC Enroll Now
1301 NCESL 33 : ESL READING & WRITING INTER 003/24/2020 - 05/14/2020 12:00 PM - 3:10 PM TTH 25 CLC Enroll Now
1302 NCESL 33 : ESL READING & WRITING INTER 003/24/2020 - 05/14/2020 6:00 PM - 9:10 PM TTH 24 CLC Enroll Now
1304 NCESL 33 : ESL READING & WRITING INTER 001/21/2020 - 03/12/2020 9:15 AM - 12:25 PM TTH 15 CLC Enroll Now
1305 NCESL 33 : ESL READING & WRITING INTER 003/24/2020 - 05/14/2020 9:15 AM - 12:25 PM TTH 22 CLC Enroll Now
3487 NCESL 33 : ESL READING & WRITING INTER 001/21/2020 - 05/14/2020 9:30 AM - 11:10 AM TTH 21 CLC Enroll Now
1944 NCESL 39 : READING/VOCAB DEV-NON NATIVES 001/21/2020 - 05/22/2020 9:00 AM - 10:15 AM MW 10 CLC Enroll Now
1259 NCESL 40 : ESL, LEVEL 6 001/21/2020 - 03/12/2020 8:30 AM - 11:50 AM MTWT5 CLC Enroll Now
1261 NCESL 40 : ESL, LEVEL 6 003/23/2020 - 05/14/2020 8:30 AM - 11:40 AM MTWT25 CLC Enroll Now
1262 NCESL 40 : ESL, LEVEL 6 003/23/2020 - 05/14/2020 6:00 PM - 9:10 PM MTWT25 CLC Enroll Now
1264 NCESL 45 : ESL, LEVEL 7 001/21/2020 - 03/12/2020 6:00 PM - 9:20 PM MTWT12 CLC Enroll Now
1265 NCESL 45 : ESL, LEVEL 7 003/23/2020 - 05/13/2020 8:30 AM - 11:40 AM MTW 24 CLC Enroll Now
1266 NCESL 45 : ESL, LEVEL 7 003/23/2020 - 05/14/2020 6:00 PM - 9:10 PM MTWT25 CLC Enroll Now
1945 NCESL 49 : GRAMMAR FOR NON-NATIVE SPEAKER 001/21/2020 - 05/22/2020 12:00 PM - 1:15 PM MW 13 CLC Enroll Now
1946 NCESL 49 : GRAMMAR FOR NON-NATIVE SPEAKER 002/04/2020 - 05/19/2020 6:00 PM - 8:50 PM T 18 CLC Enroll Now
1267 NCESL 50 : ESL, LEARNING LAB 001/21/2020 - 03/12/2020 1:00 AM - 1:00 AM ARR 10 CLC Enroll Now
1268 NCESL 50 : ESL, LEARNING LAB 001/21/2020 - 03/12/2020 1:00 AM - 1:00 AM ARR 17 CLC Enroll Now
1269 NCESL 50 : ESL, LEARNING LAB 003/23/2020 - 05/14/2020 1:00 AM - 1:00 AM ARR 19 CLC Enroll Now
1270 NCESL 50 : ESL, LEARNING LAB 003/23/2020 - 05/14/2020 1:00 AM - 1:00 AM ARR 21 CLC Enroll Now
3429 NCESL 50 : ESL, LEARNING LAB 001/21/2020 - 03/12/2020 1:00 AM - 1:00 AM ARR 14 CLC Enroll Now
3430 NCESL 50 : ESL, LEARNING LAB 003/23/2020 - 05/14/2020 1:00 AM - 1:00 AM ARR 22 CLC Enroll Now
1947 NCESL 53 : ADV GRAMMAR FOR NN SPEAKERS 002/04/2020 - 05/19/2020 10:30 AM - 11:45 AM TTH 20 CLC Enroll Now
1948 NCESL 55 : INTRO ACAD WRIT MULTILING BKG 001/21/2020 - 05/22/2020 8:30 AM - 10:20 AM T 15 CLC Enroll Now
1950 NCESL 55 : INTRO ACAD WRIT MULTILING BKG 002/03/2020 - 05/20/2020 1:30 PM - 3:50 PM M 23 CLC Enroll Now
1952 NCESL 57 : INTRO COLL COMP MULTILING BKG 001/21/2020 - 05/22/2020 8:30 AM - 10:20 AM T 22 CLC Enroll Now
1954 NCESL 57 : INTRO COLL COMP MULTILING BKG 002/04/2020 - 05/21/2020 12:00 PM - 2:20 PM T 24 CLC Enroll Now
1956 NCESL 57 : INTRO COLL COMP MULTILING BKG 002/03/2020 - 05/20/2020 6:00 PM - 9:05 PM M 21 CLC Enroll Now
1274 NCESL 62 : CT ESL 001/21/2020 - 05/14/2020 12:15 PM - 3:25 PM TTH 3 CLC Enroll Now
3415 NCESL 62 : CT ESL 001/22/2020 - 05/13/2020 6:00 PM - 9:20 PM MW 10 CLC Enroll Now
1271 NCESL 65 : CITIZENSHIP 001/21/2020 - 03/12/2020 1:00 AM - 1:00 AM ARR 5 CLC Enroll Now
1272 NCESL 65 : CITIZENSHIP 003/23/2020 - 05/14/2020 1:00 AM - 1:00 AM ARR 16 CLC Enroll Now
1273 NCESL 81 : BCDL NC ESL 001/24/2020 - 05/15/2020 8:30 AM - 11:50 AM F 7 CLC Enroll Now
1276 NCESL 82 : COMPS, DIGITAL LITERACY ESL 001/25/2020 - 05/16/2020 8:30 AM - 11:50 AM S 4 CLC Enroll Now
1277 NCESL 82 : COMPS, DIGITAL LITERACY ESL 003/24/2020 - 05/12/2020 12:00 PM - 3:10 PM T 23 CLC Enroll Now
1224 NCHAS 12 : WEIGHT MANAGEMENT 001/22/2020 - 05/13/2020 2:00 PM - 4:05 PM W 15 CLC Enroll Now
1210 NCHAS 70 : BODY COND OVER EASY 001/21/2020 - 05/13/2020 8:30 AM - 10:35 AM TW 15 CLC Enroll Now
1211 NCHAS 70 : BODY COND OVER EASY 001/21/2020 - 05/14/2020 11:00 AM - 1:05 PM TTH 5 CLC Enroll Now
1212 NCHAS 71 : BODY CONDITIONING, OLDER ADULT 001/21/2020 - 05/14/2020 8:00 AM - 9:25 AM TTH 1 CLC Enroll Now
1213 NCHAS 71 : BODY CONDITIONING, OLDER ADULT 001/21/2020 - 05/14/2020 9:40 AM - 11:05 AM TTH 1 CLC Enroll Now
1214 NCHAS 71 : BODY CONDITIONING, OLDER ADULT 001/22/2020 - 05/15/2020 8:00 AM - 9:00 AM MWF 7 CLC Enroll Now
1216 NCHAS 71 : BODY CONDITIONING, OLDER ADULT 001/22/2020 - 05/13/2020 9:00 AM - 10:30 AM MW 5 CLC Enroll Now
3424 NCHAS 83 : TAI CHI CHUAN FOR SENIORS, ADV 001/22/2020 - 05/13/2020 1:30 PM - 3:35 PM W 7 CLC Enroll Now
1219 NCHAS 85 : CHAIR YOGA FOR OLDER ADULTS 001/21/2020 - 05/14/2020 2:55 PM - 4:20 PM TTH 6 CLC Enroll Now
1220 NCHAS 85 : CHAIR YOGA FOR OLDER ADULTS 001/22/2020 - 05/13/2020 9:30 AM - 11:00 AM MW 9 CLC Enroll Now
1185 NCHLT 11 : SPINAL FITNESS 001/21/2020 - 05/14/2020 9:00 AM - 11:05 AM TTH 10 CLC Enroll Now
1188 NCHLT 11 : SPINAL FITNESS 001/22/2020 - 05/15/2020 7:50 AM - 9:20 AM MWF 5 CLC Enroll Now
2589 NCMTH 11 : BASIC SKILLS MATH 1 001/21/2020 - 03/12/2020 10:30 AM - 12:10 PM MTWT2 CLC Enroll Now
2591 NCMTH 11 : BASIC SKILLS MATH 1 001/21/2020 - 03/12/2020 6:00 PM - 9:10 PM TTH 2 CLC Enroll Now
2592 NCMTH 11 : BASIC SKILLS MATH 1 003/23/2020 - 05/14/2020 8:30 AM - 10:05 AM MTWT5 CLC Enroll Now
2593 NCMTH 12 : BASIC SKILLS MATH 2 001/21/2020 - 03/12/2020 10:30 AM - 12:10 PM MTWT4 CLC Enroll Now
2594 NCMTH 12 : BASIC SKILLS MATH 2 001/21/2020 - 03/12/2020 6:00 PM - 9:10 PM TTH 3 CLC Enroll Now
2595 NCMTH 12 : BASIC SKILLS MATH 2 003/23/2020 - 05/13/2020 6:00 PM - 9:10 PM MW 5 CLC Enroll Now
2596 NCMTH 13 : BASIC SKILLS MATH 3 001/21/2020 - 03/12/2020 12:30 PM - 2:10 PM MTWT5 CLC Enroll Now
2597 NCMTH 13 : BASIC SKILLS MATH 3 003/23/2020 - 05/14/2020 8:30 AM - 10:05 AM MTWT5 CLC Enroll Now
2598 NCMTH 13 : BASIC SKILLS MATH 3 003/23/2020 - 05/13/2020 6:00 PM - 9:10 PM MW 5 CLC Enroll Now
2599 NCMTH 20 : ALGEBRA ESSENTIALS 1 001/21/2020 - 03/12/2020 8:30 AM - 10:10 AM MTWT5 CLC Enroll Now
2600 NCMTH 20 : ALGEBRA ESSENTIALS 1 001/22/2020 - 03/11/2020 6:00 PM - 9:30 PM MW 3 CLC Enroll Now
2601 NCMTH 20 : ALGEBRA ESSENTIALS 1 003/23/2020 - 05/14/2020 12:30 PM - 2:05 PM MTWT5 CLC Enroll Now
2602 NCMTH 21 : ALGEBRA ESSENTIALS 2 003/23/2020 - 05/14/2020 10:30 AM - 12:05 PM MTWT5 CLC Enroll Now
2603 NCMTH 21 : ALGEBRA ESSENTIALS 2 003/24/2020 - 05/14/2020 6:00 PM - 9:10 PM TTH 5 CLC Enroll Now
1226 NCMUS 10 : MUSIC APPRECIATION 001/22/2020 - 05/13/2020 1:00 PM - 3:50 PM W 11 CLC Enroll Now
1227 NCMUS 10 : MUSIC APPRECIATION 001/23/2020 - 05/14/2020 1:00 PM - 3:50 PM TH 13 CLC Enroll Now
1192 NCPAR 20 : PARENT - TODDLER WORKSHOP 001/22/2020 - 05/13/2020 9:00 AM - 10:55 AM MW 2 CLC Enroll Now
1228 NCPSY 11 : SELF-AWARENESS THRU IMPROV 001/21/2020 - 05/12/2020 3:30 PM - 5:50 PM T 9 CLC Enroll Now
1229 NCPSY 11 : SELF-AWARENESS THRU IMPROV 001/22/2020 - 05/13/2020 1:30 PM - 3:50 PM W 3 CLC Enroll Now
1230 NCPSY 13 : IMPACT OF RADIO ON OUR LIVES 001/27/2020 - 05/11/2020 1:30 PM - 4:45 PM M 12 CLC Enroll Now
1237 NCSPC 26 : BASIC ACADEMIC SKILLS 001/22/2020 - 05/13/2020 12:15 PM - 3:00 PM MW 3 CLC Enroll Now
1240 NCSPC 28 : BASIC COMPUTER SKILLS 2 IDD 001/21/2020 - 05/14/2020 12:00 PM - 2:35 PM TTH 3 CLC Enroll Now
1175 NCVOC 31 : BEGIN MICRO WORD 003/24/2020 - 05/12/2020 9:00 AM - 12:10 PM T 20 CLC Enroll Now
1176 NCVOC 32 : INTERMED MICRO WORD 003/28/2020 - 05/09/2020 8:10 AM - 11:40 AM S 14 CLC Enroll Now
1180 NCVOC 35 : INTERNET 003/28/2020 - 05/09/2020 11:50 AM - 3:20 PM S 20 CLC Enroll Now
1171 NCVOC 38 : COMPUTER BASICS/KEYBOARDING 003/28/2020 - 05/09/2020 8:10 AM - 11:40 AM S 23 CLC Enroll Now
1177 NCVOC 39 : BEGIN MICRO EXCEL 001/21/2020 - 03/10/2020 9:00 AM - 12:10 PM T 3 CLC Enroll Now
1166 NCVOC 50 : BASIC AUTO TUNE UP 001/24/2020 - 05/15/2020 6:00 PM - 9:20 PM F 5 CLC Enroll Now
1172 NCWFP 11 : APPLIED COMPUTER SKILLS 001/22/2020 - 03/11/2020 2:15 PM - 5:50 PM MW 6 CLC Enroll Now
1173 NCWFP 11 : APPLIED COMPUTER SKILLS 003/23/2020 - 05/13/2020 2:15 PM - 5:25 PM MW 23 CLC Enroll Now
1168 NCWFP 21 : EMPLOYABILITY SKILLS 001/22/2020 - 05/13/2020 8:30 AM - 11:50 AM MW 16 CLC Enroll Now
3049 NURS 64 : HOME HEALTH AIDE 203/25/2020 - 05/13/2020 8:00 AM - 11:00 AM W 12 Oceanside Enroll Now
3033 NURS 181 : MEDICAL SURGICAL NURSING I 403/24/2020 - 05/16/2020 9:00 AM - 1:05 PM T 4 Oceanside Enroll Now
3040 NURS 284L : PRECEPTORSHIP LAB 201/21/2020 - 05/22/2020 11:00 AM - 11:50 AM W 10 Oceanside Enroll Now
1161 NURS 299 : OCCUPATIONAL COOPERATIVE WORK 302/03/2020 - 05/22/2020 1:00 AM - 1:00 AM ARR 1 Oceanside Enroll Now
2021 NUTR 100 : NUTRITION TODAY 302/04/2020 - 05/19/2020 10:00 AM - 11:15 AM T 25 Online Enroll Now
2030 NUTR 105 : HUMAN PERF & SPORTS NUTRITION 302/04/2020 - 05/19/2020 1:15 PM - 2:50 PM TTH 25 Oceanside Enroll Now
2033 NUTR 125 : NUTRITION AND AGING 302/03/2020 - 05/22/2020 1:00 AM - 1:00 AM ONL 24 Online Enroll Now
1905 OCEA 101 : INTRO TO OCEANOGRAPHY 301/21/2020 - 05/22/2020 10:30 AM - 11:45 AM MW 2 San Elijo Enroll Now
1907 OCEA 101 : INTRO TO OCEANOGRAPHY 301/21/2020 - 05/22/2020 12:00 PM - 1:15 PM MW 7 San Elijo Enroll Now
1911 OCEA 101 : INTRO TO OCEANOGRAPHY 302/03/2020 - 05/22/2020 1:00 AM - 1:00 AM ONL 2 Online Enroll Now
1912 OCEA 101 : INTRO TO OCEANOGRAPHY 302/03/2020 - 05/22/2020 1:00 AM - 1:00 AM ONL 6 Online Enroll Now
3004 PHAR 100 : BASIC PHARMACOLOGY 301/21/2020 - 05/22/2020 6:30 PM - 9:20 PM W 22 Oceanside Enroll Now
3007 PHAR 201 : PHARMACOLOGY REVIEW & UPDATE 201/21/2020 - 05/22/2020 12:30 PM - 2:20 PM TH 20 Oceanside Enroll Now
3008 PHAR 201 : PHARMACOLOGY REVIEW & UPDATE 201/27/2020 - 05/18/2020 12:30 PM - 2:35 PM M 4 Oceanside Enroll Now
2340 PHIL 100 : CRITICAL THINKING 301/21/2020 - 05/22/2020 9:00 AM - 12:00 PM F 14 Oceanside Enroll Now
2341 PHIL 100 : CRITICAL THINKING 301/21/2020 - 05/22/2020 9:00 AM - 10:15 AM MW 15 San Elijo Enroll Now
2349 PHIL 101 : INTRO TO PHILOSOPHY 301/21/2020 - 05/22/2020 10:30 AM - 11:45 AM MW 2 San Elijo Enroll Now
2356 PHIL 221 : PHILOSOPHY OF RELIGION 301/21/2020 - 05/22/2020 12:00 PM - 1:15 PM MW 11 Oceanside Enroll Now
1842 PHYS 112 : INTRO PHYSICS II 401/21/2020 - 05/22/2020 6:00 PM - 7:15 PM MW 16 San Elijo Enroll Now
1866 PHYS 151 : PHYSICS I 401/21/2020 - 05/22/2020 7:30 AM - 8:45 AM MW 5 San Elijo Enroll Now
1850 PHYS 152 : PRINCIPLES OF PHYSICS II 401/21/2020 - 05/22/2020 6:00 PM - 7:15 PM MW 16 Oceanside Enroll Now
1856 PHYS 253 : PRINCIPLES OF PHYSICS III 401/21/2020 - 05/22/2020 2:30 PM - 3:45 PM MW 13 San Elijo Enroll Now
1879 PHYS 280 : INTRO TO ELECTRONICS 301/21/2020 - 05/22/2020 1:30 PM - 3:35 PM M 20 Oceanside Enroll Now
1023 PLSC 102 : AMERICAN INST & HISTORY 401/21/2020 - 05/22/2020 11:00 AM - 12:50 PM MW 7 San Elijo Enroll Now
1030 PLSC 102 : AMERICAN INST & HISTORY 403/23/2020 - 05/18/2020 1:00 AM - 1:00 AM ONL 25 Online Enroll Now
2255 PSYC 100 : PSYCH OF PERSONAL GROWTH 301/21/2020 - 05/22/2020 10:30 AM - 11:45 AM MW 2 Oceanside Enroll Now
2259 PSYC 100 : PSYCH OF PERSONAL GROWTH 301/27/2020 - 05/18/2020 6:00 PM - 9:10 PM M 18 San Elijo Enroll Now
2260 PSYC 100 : PSYCH OF PERSONAL GROWTH 301/21/2020 - 05/22/2020 10:30 AM - 11:45 AM MW 2 San Elijo Enroll Now
2268 PSYC 101 : GENERAL PSYCHOLOGY 302/07/2020 - 05/22/2020 1:00 PM - 4:50 PM F 21 Oceanside Enroll Now
2270 PSYC 101 : GENERAL PSYCHOLOGY 301/21/2020 - 05/22/2020 3:00 PM - 4:15 PM MW 6 Oceanside Enroll Now
2271 PSYC 101 : GENERAL PSYCHOLOGY 301/21/2020 - 05/22/2020 4:30 PM - 5:45 PM MW 6 Oceanside Enroll Now
2320 PSYC 103 : SOCIAL PSYCHOLOGY 301/27/2020 - 05/18/2020 6:30 PM - 9:40 PM M 21 Oceanside Enroll Now
2292 PSYC 104 : STATISTICS FOR BEHAVIORAL SCI 401/21/2020 - 05/22/2020 8:30 AM - 12:30 PM F 11 Oceanside Enroll Now
2300 PSYC 104 : STATISTICS FOR BEHAVIORAL SCI 401/27/2020 - 05/18/2020 5:30 PM - 9:50 PM M 13 Oceanside Enroll Now
3580 PSYC 104 : STATISTICS FOR BEHAVIORAL SCI 402/03/2020 - 05/22/2020 1:00 AM - 1:00 AM ONL 13 Online Enroll Now
2287 PSYC 115 : HUMAN SEXUALITY 301/21/2020 - 05/22/2020 1:30 PM - 2:45 PM MW 10 Oceanside Enroll Now
2289 PSYC 115 : HUMAN SEXUALITY 301/21/2020 - 05/22/2020 1:30 PM - 2:45 PM MW 24 San Elijo Enroll Now
2281 PSYC 121 : HUMAN DEVELOPMENT 301/21/2020 - 05/22/2020 10:30 AM - 11:45 AM MW 16 Oceanside Enroll Now
3593 PSYC 121 : HUMAN DEVELOPMENT 302/03/2020 - 05/22/2020 1:00 AM - 1:00 AM ONL 8 Online Enroll Now
2279 PSYC 125 : PSYCH OF WOMEN 301/21/2020 - 05/22/2020 3:00 PM - 4:15 PM MW 26 Oceanside Enroll Now
3601 PSYC 145 : PSYCH/SOC OF FAMILY 301/21/2020 - 05/22/2020 12:00 PM - 1:15 PM MW 26 Oceanside Enroll Now
3581 PSYC 205 : RESEARCH METHODS IN PSYCHOLOGY 302/04/2020 - 05/19/2020 3:30 PM - 4:30 PM TTH 21 Oceanside Enroll Now
2830 READ 100 : CRITICAL READING AND THINKING 301/21/2020 - 05/22/2020 10:30 AM - 11:45 AM MW 2 Oceanside Enroll Now
2834 READ 100 : CRITICAL READING AND THINKING 302/04/2020 - 05/21/2020 12:00 PM - 1:35 PM TTH 21 San Elijo Enroll Now
2335 RELG 101 : WORLD RELIGIONS 302/04/2020 - 05/19/2020 6:00 PM - 9:25 PM T 23 Oceanside Enroll Now
3499 RELG 101 : WORLD RELIGIONS 302/03/2020 - 05/20/2020 3:00 PM - 4:35 PM MW 6 Oceanside Enroll Now
2337 RELG 105 : EASTERN RELIGIONS 301/21/2020 - 05/22/2020 10:30 AM - 11:45 AM MW 12 Oceanside Enroll Now
3243 SOC 101 : INTRO TO SOCIOLOGY 301/21/2020 - 05/22/2020 9:00 AM - 12:00 PM F 20 Oceanside Enroll Now
3245 SOC 101 : INTRO TO SOCIOLOGY 301/21/2020 - 05/22/2020 12:00 PM - 1:15 PM MW 24 Oceanside Enroll Now
3247 SOC 101 : INTRO TO SOCIOLOGY 301/21/2020 - 05/22/2020 1:30 PM - 2:45 PM MW 11 Oceanside Enroll Now
3610 SOC 101 : INTRO TO SOCIOLOGY 302/03/2020 - 05/22/2020 1:00 AM - 1:00 AM ONL 15 Online Enroll Now
3237 SOC 102 : CONTEMP SOCIAL PROBLEMS 301/21/2020 - 05/22/2020 6:30 PM - 9:20 PM TH 24 Oceanside Enroll Now
3235 SOC 103 : SOCIAL PSYCHOLOGY 301/27/2020 - 05/18/2020 6:30 PM - 9:40 PM M 19 Oceanside Enroll Now
3420 SOC 125 : STATISTICS FOR SOCIOLOGY 401/21/2020 - 05/22/2020 3:30 PM - 5:20 PM MW 8 Oceanside Enroll Now
3421 SOC 125 : STATISTICS FOR SOCIOLOGY 401/21/2020 - 05/22/2020 6:30 PM - 9:20 PM TH 5 Oceanside Enroll Now
3588 SOC 145 : PSYCH/SOC OF FAMILY 301/21/2020 - 05/22/2020 12:00 PM - 1:15 PM MW 26 Oceanside Enroll Now
3226 SOC 230 : INTRODUCTION TO CHICANA/O STUD 301/21/2020 - 05/22/2020 1:30 PM - 2:45 PM MW 27 Oceanside Enroll Now
2489 SPAN 101 : ELEM SPANISH 1ST SEMESTER 401/21/2020 - 05/22/2020 9:30 AM - 11:15 AM MW 9 Oceanside Enroll Now
2493 SPAN 101 : ELEM SPANISH 1ST SEMESTER 401/21/2020 - 05/22/2020 12:00 PM - 1:45 PM MW 16 Oceanside Enroll Now
2497 SPAN 101 : ELEM SPANISH 1ST SEMESTER 401/21/2020 - 05/22/2020 6:00 PM - 7:45 PM MW 3 Oceanside Enroll Now
2499 SPAN 101 : ELEM SPANISH 1ST SEMESTER 401/21/2020 - 05/22/2020 12:00 PM - 1:45 PM MW 18 San Elijo Enroll Now
2975 SPAN 101 : ELEM SPANISH 1ST SEMESTER 402/04/2020 - 05/21/2020 9:00 AM - 11:00 AM TTH 25 San Elijo Enroll Now
3590 SPAN 101 : ELEM SPANISH 1ST SEMESTER 402/03/2020 - 05/22/2020 1:00 AM - 1:00 AM ONL 25 Online Enroll Now
2509 SPAN 102 : ELEM SPANISH 2ND SEMESTER 401/21/2020 - 05/22/2020 1:00 PM - 2:45 PM MW 4 Oceanside Enroll Now
3449 SPAN 102 : ELEM SPANISH 2ND SEMESTER 401/21/2020 - 05/22/2020 6:30 PM - 8:15 PM MW 21 Oceanside Enroll Now
2519 SPAN 201 : INTER SPANISH 3RD SEMESTER 401/21/2020 - 05/22/2020 10:30 AM - 12:15 PM MW 17 Oceanside Enroll Now
2527 SPAN 201 : INTER SPANISH 3RD SEMESTER 402/03/2020 - 05/22/2020 1:00 AM - 1:00 AM ONL 4 Online Enroll Now